| time (UTC) | temp F | wind direction | speed knots | gust knots | rain 1hr in | rain 24hr in | rain mn in | humidity % | barometer mb |
| 20260504110703 | 72 | 245 | 5.2 | 8.7 | 0.00 | 0.00 | 0.00 | 42 | 1018.2 |
| 20260504110603 | 72 | 245 | 5.2 | 8.7 | 0.00 | 0.00 | 0.00 | 42 | 1018.2 |
| 20260504110503 | 72 | 243 | 4.3 | 8.7 | 0.00 | 0.00 | 0.00 | 43 | 1018.2 |
| 20260504110403 | 72 | 242 | 4.3 | 8.7 | 0.00 | 0.00 | 0.00 | 43 | 1018.2 |
| 20260504110303 | 72 | 241 | 4.3 | 8.7 | 0.00 | 0.00 | 0.00 | 43 | 1018.2 |
| 20260504110203 | 72 | 242 | 4.3 | 8.7 | 0.00 | 0.00 | 0.00 | 42 | 1018.2 |
| 20260504110103 | 72 | 243 | 4.3 | 8.7 | 0.00 | 0.00 | 0.00 | 42 | 1018.2 |
| 20260504100603 | 72 | 265 | 4.3 | 10.4 | 0.00 | 0.00 | 0.00 | 41 | 1018.3 |
| 20260504100503 | 72 | 264 | 4.3 | 10.4 | 0.00 | 0.00 | 0.00 | 41 | 1018.3 |
| 20260504100403 | 72 | 267 | 4.3 | 10.4 | 0.00 | 0.00 | 0.00 | 41 | 1018.3 |
| 20260504100303 | 72 | 270 | 4.3 | 10.4 | 0.00 | 0.00 | 0.00 | 42 | 1018.4 |
| 20260504100203 | 72 | 272 | 4.3 | 10.4 | 0.00 | 0.00 | 0.00 | 41 | 1018.4 |
| 20260504100103 | 72 | 272 | 4.3 | 10.4 | 0.00 | 0.00 | 0.00 | 41 | 1018.4 |
| 20260504082003 | 68 | 233 | 1.7 | 6.1 | 0.00 | 0.00 | 0.00 | 44 | 1018.2 |
| 20260504081903 | 68 | 237 | 1.7 | 6.1 | 0.00 | 0.00 | 0.00 | 44 | 1018.2 |
| 20260504081803 | 68 | 240 | 1.7 | 6.1 | 0.00 | 0.00 | 0.00 | 45 | 1018.1 |
| 20260504081703 | 68 | 238 | 2.6 | 6.1 | 0.00 | 0.00 | 0.00 | 44 | 1018.1 |
| 20260504081603 | 68 | 240 | 2.6 | 6.1 | 0.00 | 0.00 | 0.00 | 44 | 1018.1 |
| 20260504081503 | 68 | 243 | 2.6 | 6.1 | 0.00 | 0.00 | 0.00 | 44 | 1018.1 |
| 20260504081403 | 68 | 248 | 2.6 | 6.1 | 0.00 | 0.00 | 0.00 | 44 | 1018.2 |
| 20260504081303 | 68 | 253 | 2.6 | 6.1 | 0.00 | 0.00 | 0.00 | 45 | 1018.2 |
| 20260504081203 | 68 | 264 | 2.6 | 6.1 | 0.00 | 0.00 | 0.00 | 44 | 1018.2 |
| 20260504081103 | 68 | 269 | 2.6 | 6.1 | 0.00 | 0.00 | 0.00 | 44 | 1018.2 |
| 20260504081003 | 68 | 273 | 2.6 | 6.1 | 0.00 | 0.00 | 0.00 | 45 | 1018.1 |
| 20260504080903 | 68 | 277 | 2.6 | 6.1 | 0.00 | 0.00 | 0.00 | 44 | 1018.1 |
| 20260504080803 | 68 | 278 | 2.6 | 6.1 | 0.00 | 0.00 | 0.00 | 44 | 1018.1 |
| 20260504080703 | 68 | 279 | 2.6 | 6.1 | 0.00 | 0.00 | 0.00 | 44 | 1018.1 |
| 20260504080603 | 68 | 280 | 2.6 | 6.1 | 0.00 | 0.00 | 0.00 | 44 | 1018.1 |
| 20260504080503 | 68 | 279 | 2.6 | 6.1 | 0.00 | 0.00 | 0.00 | 44 | 1018.2 |
| 20260504080403 | 68 | 279 | 1.7 | 5.2 | 0.00 | 0.00 | 0.00 | 44 | 1018.1 |
| 20260504080303 | 68 | 276 | 1.7 | 5.2 | 0.00 | 0.00 | 0.00 | 44 | 1018.1 |
| 20260504080203 | 68 | 271 | 1.7 | 5.2 | 0.00 | 0.00 | 0.00 | 44 | 1018.1 |
| 20260504080103 | 68 | 268 | 1.7 | 5.2 | 0.00 | 0.00 | 0.00 | 44 | 1018.1 |
| 20260504070403 | 65 | 273 | 2.6 | 7.0 | 0.00 | 0.00 | 0.00 | 48 | 1017.7 |
| 20260504070303 | 65 | 273 | 2.6 | 7.0 | 0.00 | 0.00 | 0.00 | 49 | 1017.7 |
| 20260504070203 | 65 | 275 | 2.6 | 6.1 | 0.00 | 0.00 | 0.00 | 49 | 1017.7 |
| 20260504060203 | 61 | 267 | 0.9 | 3.5 | 0.00 | 0.00 | 0.00 | 56 | 1017.5 |
| 20260504060103 | 61 | 265 | 0.9 | 2.6 | 0.00 | 0.00 | 0.00 | 56 | 1017.5 |
| 20260504050703 | 58 | 340 | 0.0 | 0.9 | 0.00 | 0.00 | 0.00 | 61 | 1017.2 |
| 20260504050603 | 58 | 340 | 0.0 | 0.9 | 0.00 | 0.00 | 0.00 | 61 | 1017.1 |
| 20260504050504 | 58 | 340 | 0.0 | 0.9 | 0.00 | 0.00 | 0.00 | 61 | 1017.1 |
| 20260504050403 | 58 | 340 | 0.0 | 0.9 | 0.00 | 0.00 | 0.00 | 61 | 1017.2 |
| 20260504050303 | 58 | 340 | 0.0 | 0.9 | 0.00 | 0.00 | 0.00 | 62 | 1017.2 |
| 20260504050203 | 58 | 340 | 0.0 | 0.9 | 0.00 | 0.00 | 0.00 | 62 | 1017.1 |
| 20260504050103 | 58 | 340 | 0.0 | 0.9 | 0.00 | 0.00 | 0.00 | 61 | 1017.0 |
| 20260504050004 | 58 | 340 | 0.0 | 0.9 | 0.00 | 0.00 | 0.00 | 61 | 1017.0 |
| 20260504045903 | 58 | 340 | 0.0 | 1.7 | 0.00 | 0.00 | 0.00 | 61 | 1017.1 |
| 20260504045803 | 58 | 340 | 0.0 | 1.7 | 0.00 | 0.00 | 0.00 | 62 | 1017.0 |
| 20260504045703 | 58 | 340 | 0.0 | 1.7 | 0.00 | 0.00 | 0.00 | 61 | 1017.0 |
| 20260504045603 | 58 | 340 | 0.0 | 1.7 | 0.00 | 0.00 | 0.00 | 62 | 1017.0 |
| 20260504045503 | 58 | 340 | 0.0 | 1.7 | 0.00 | 0.00 | 0.00 | 62 | 1017.0 |
| 20260504045403 | 58 | 340 | 0.0 | 1.7 | 0.00 | 0.00 | 0.00 | 62 | 1017.0 |
| 20260504045304 | 58 | 340 | 0.0 | 1.7 | 0.00 | 0.00 | 0.00 | 62 | 1017.0 |
| 20260504045203 | 58 | 340 | 0.0 | 1.7 | 0.00 | 0.00 | 0.00 | 62 | 1017.0 |
| 20260504045103 | 58 | 340 | 0.0 | 1.7 | 0.00 | 0.00 | 0.00 | 61 | 1016.9 |
| 20260504045003 | 58 | 340 | 0.0 | 1.7 | 0.00 | 0.00 | 0.00 | 61 | 1016.9 |
| 20260504044903 | 58 | 340 | 0.0 | 1.7 | 0.00 | 0.00 | 0.00 | 61 | 1016.9 |
| 20260504044803 | 58 | 340 | 0.0 | 1.7 | 0.00 | 0.00 | 0.00 | 61 | 1016.9 |
| 20260504044703 | 57 | 340 | 0.0 | 1.7 | 0.00 | 0.00 | 0.00 | 62 | 1016.9 |
| 20260504044603 | 57 | 340 | 0.0 | 1.7 | 0.00 | 0.00 | 0.00 | 62 | 1016.9 |
| 20260504044503 | 57 | 340 | 0.0 | 1.7 | 0.00 | 0.00 | 0.00 | 63 | 1016.9 |
| 20260504044403 | 57 | 340 | 0.0 | 1.7 | 0.00 | 0.00 | 0.00 | 63 | 1016.8 |
| 20260504044303 | 57 | 340 | 0.0 | 1.7 | 0.00 | 0.00 | 0.00 | 63 | 1016.9 |
| 20260504044203 | 57 | 340 | 0.0 | 0.9 | 0.00 | 0.00 | 0.00 | 63 | 1016.9 |
| 20260504044103 | 57 | 340 | 0.0 | 0.9 | 0.00 | 0.00 | 0.00 | 63 | 1016.9 |
| 20260504044003 | 57 | 340 | 0.0 | 0.9 | 0.00 | 0.00 | 0.00 | 64 | 1016.9 |
| 20260504043903 | 57 | 340 | 0.0 | 0.9 | 0.00 | 0.00 | 0.00 | 64 | 1016.9 |
| 20260504043803 | 57 | 340 | 0.0 | 0.9 | 0.00 | 0.00 | 0.00 | 64 | 1016.9 |
| 20260504043703 | 57 | 340 | 0.0 | 0.9 | 0.00 | 0.00 | 0.00 | 64 | 1016.9 |
| 20260504043603 | 57 | 340 | 0.0 | 0.9 | 0.00 | 0.00 | 0.00 | 64 | 1016.8 |
| 20260504043503 | 57 | 340 | 0.0 | 0.9 | 0.00 | 0.00 | 0.00 | 65 | 1016.8 |
| 20260504043403 | 57 | 340 | 0.0 | 0.9 | 0.00 | 0.00 | 0.00 | 65 | 1016.8 |
| 20260504043303 | 57 | 340 | 0.0 | 0.9 | 0.00 | 0.00 | 0.00 | 65 | 1016.8 |
| 20260504043203 | 57 | 340 | 0.0 | 0.9 | 0.00 | 0.00 | 0.00 | 65 | 1016.8 |
| 20260504043104 | 57 | 340 | 0.0 | 0.9 | 0.00 | 0.00 | 0.00 | 65 | 1016.7 |
| 20260504043003 | 57 | 340 | 0.0 | 0.9 | 0.00 | 0.00 | 0.00 | 65 | 1016.8 |
| 20260504042903 | 57 | 340 | 0.0 | 0.9 | 0.00 | 0.00 | 0.00 | 65 | 1016.8 |
| 20260504042803 | 57 | 340 | 0.0 | 0.9 | 0.00 | 0.00 | 0.00 | 65 | 1016.8 |
| 20260504042703 | 56 | 340 | 0.0 | 0.9 | 0.00 | 0.00 | 0.00 | 65 | 1016.8 |
| 20260504042603 | 56 | 340 | 0.0 | 0.9 | 0.00 | 0.00 | 0.00 | 65 | 1016.8 |
| 20260504042503 | 56 | 340 | 0.0 | 0.9 | 0.00 | 0.00 | 0.00 | 65 | 1016.8 |
| 20260504042403 | 56 | 340 | 0.0 | 1.7 | 0.00 | 0.00 | 0.00 | 65 | 1016.8 |
| 20260504042304 | 56 | 340 | 0.0 | 1.7 | 0.00 | 0.00 | 0.00 | 65 | 1016.8 |
| 20260504042203 | 56 | 340 | 0.0 | 1.7 | 0.00 | 0.00 | 0.00 | 66 | 1016.8 |
| 20260504042103 | 56 | 340 | 0.9 | 1.7 | 0.00 | 0.00 | 0.00 | 66 | 1016.8 |
| 20260504042003 | 56 | 340 | 0.9 | 2.6 | 0.00 | 0.00 | 0.00 | 66 | 1016.8 |
| 20260504041903 | 56 | 340 | 0.9 | 2.6 | 0.00 | 0.00 | 0.00 | 66 | 1016.8 |
| 20260504041803 | 56 | 340 | 0.9 | 2.6 | 0.00 | 0.00 | 0.00 | 66 | 1016.8 |
| 20260504041703 | 56 | 340 | 0.9 | 2.6 | 0.00 | 0.00 | 0.00 | 65 | 1016.7 |
| 20260504041603 | 56 | 340 | 0.9 | 2.6 | 0.00 | 0.00 | 0.00 | 65 | 1016.7 |
| 20260504041503 | 56 | 340 | 0.9 | 2.6 | 0.00 | 0.00 | 0.00 | 65 | 1016.7 |
| 20260504041403 | 56 | 341 | 0.9 | 2.6 | 0.00 | 0.00 | 0.00 | 65 | 1016.7 |
| 20260504041303 | 56 | 341 | 0.9 | 2.6 | 0.00 | 0.00 | 0.00 | 65 | 1016.7 |
| 20260504041203 | 57 | 341 | 1.7 | 3.5 | 0.00 | 0.00 | 0.00 | 65 | 1016.8 |
| 20260504041103 | 57 | 341 | 0.9 | 3.5 | 0.00 | 0.00 | 0.00 | 65 | 1016.8 |
| 20260504041003 | 57 | 341 | 0.9 | 3.5 | 0.00 | 0.00 | 0.00 | 64 | 1016.7 |
| 20260504040903 | 57 | 342 | 0.9 | 3.5 | 0.00 | 0.00 | 0.00 | 64 | 1016.6 |
| 20260504040803 | 57 | 342 | 0.9 | 3.5 | 0.00 | 0.00 | 0.00 | 64 | 1016.6 |
| 20260504040703 | 57 | 342 | 0.9 | 3.5 | 0.00 | 0.00 | 0.00 | 64 | 1016.7 |
| 20260504040603 | 57 | 343 | 0.9 | 3.5 | 0.00 | 0.00 | 0.00 | 63 | 1016.7 |
| 20260504040503 | 57 | 342 | 0.9 | 3.5 | 0.00 | 0.00 | 0.00 | 64 | 1016.8 |
| 20260504040403 | 57 | 342 | 0.0 | 3.5 | 0.00 | 0.00 | 0.00 | 63 | 1016.7 |
| 20260504040303 | 57 | 340 | 0.0 | 3.5 | 0.00 | 0.00 | 0.00 | 63 | 1016.7 |
| 20260504040203 | 57 | 339 | 0.0 | 1.7 | 0.00 | 0.00 | 0.00 | 64 | 1016.8 |
| 20260504040103 | 57 | 0 | 0.0 | 0.0 | 0.00 | 0.00 | 0.00 | 64 | 1016.8 |
| 20260504040003 | 57 | 0 | 0.0 | 0.0 | 0.00 | 0.00 | 0.00 | 64 | 1016.8 |
| 20260504035903 | 57 | 0 | 0.0 | 0.0 | 0.00 | 0.00 | 0.00 | 64 | 1016.8 |
| 20260504035803 | 57 | 0 | 0.0 | 0.0 | 0.00 | 0.00 | 0.00 | 64 | 1016.8 |
| 20260504035703 | 57 | 0 | 0.0 | 0.0 | 0.00 | 0.00 | 0.00 | 64 | 1016.8 |
| 20260504035603 | 57 | 0 | 0.0 | 0.0 | 0.00 | 0.00 | 0.00 | 64 | 1016.8 |
| 20260504035503 | 57 | 0 | 0.0 | 0.0 | 0.00 | 0.00 | 0.00 | 64 | 1016.7 |
| 20260504035403 | 57 | 0 | 0.0 | 0.0 | 0.00 | 0.00 | 0.00 | 64 | 1016.8 |
| 20260504035304 | 57 | 0 | 0.0 | 0.0 | 0.00 | 0.00 | 0.00 | 64 | 1016.8 |
| 20260504035203 | 57 | 0 | 0.0 | 0.0 | 0.00 | 0.00 | 0.00 | 64 | 1016.6 |
| 20260504035103 | 57 | 0 | 0.0 | 0.0 | 0.00 | 0.00 | 0.00 | 64 | 1016.7 |
| 20260504035003 | 57 | 0 | 0.0 | 0.0 | 0.00 | 0.00 | 0.00 | 63 | 1016.7 |
| 20260504034903 | 57 | 0 | 0.0 | 0.0 | 0.00 | 0.00 | 0.00 | 63 | 1016.6 |
| 20260504034803 | 58 | 0 | 0.0 | 0.0 | 0.00 | 0.00 | 0.00 | 63 | 1016.6 |
| 20260504034703 | 57 | 0 | 0.0 | 0.0 | 0.00 | 0.00 | 0.00 | 63 | 1016.6 |
| 20260504034603 | 57 | 0 | 0.0 | 0.0 | 0.00 | 0.00 | 0.00 | 63 | 1016.7 |
| 20260504034503 | 57 | 0 | 0.0 | 0.0 | 0.00 | 0.00 | 0.00 | 64 | 1016.7 |
| 20260504034403 | 58 | 245 | 0.0 | 0.9 | 0.00 | 0.00 | 0.00 | 64 | 1016.7 |
| 20260504034303 | 57 | 245 | 0.0 | 0.9 | 0.00 | 0.00 | 0.00 | 64 | 1016.7 |
| 20260504034203 | 57 | 245 | 0.0 | 0.9 | 0.00 | 0.00 | 0.00 | 65 | 1016.8 |
| 20260504034103 | 57 | 245 | 0.0 | 0.9 | 0.00 | 0.00 | 0.00 | 65 | 1016.7 |
| 20260504034003 | 57 | 245 | 0.0 | 0.9 | 0.00 | 0.00 | 0.00 | 64 | 1016.7 |
| 20260504033903 | 57 | 245 | 0.0 | 0.9 | 0.00 | 0.00 | 0.00 | 64 | 1016.8 |
| 20260504033803 | 57 | 245 | 0.0 | 0.9 | 0.00 | 0.00 | 0.00 | 64 | 1016.8 |
| 20260504033703 | 57 | 245 | 0.0 | 0.9 | 0.00 | 0.00 | 0.00 | 64 | 1016.8 |
| 20260504033603 | 57 | 245 | 0.0 | 0.9 | 0.00 | 0.00 | 0.00 | 64 | 1016.8 |
| 20260504033503 | 57 | 245 | 0.0 | 0.9 | 0.00 | 0.00 | 0.00 | 64 | 1016.8 |
| 20260504033403 | 57 | 0 | 0.0 | 0.0 | 0.00 | 0.00 | 0.00 | 64 | 1016.8 |
| 20260504033303 | 57 | 0 | 0.0 | 0.0 | 0.00 | 0.00 | 0.00 | 64 | 1016.8 |
| 20260504033203 | 57 | 0 | 0.0 | 0.0 | 0.00 | 0.00 | 0.00 | 64 | 1016.8 |
| 20260504033103 | 57 | 0 | 0.0 | 0.0 | 0.00 | 0.00 | 0.00 | 64 | 1016.9 |
| 20260504033004 | 57 | 0 | 0.0 | 0.0 | 0.00 | 0.00 | 0.00 | 64 | 1016.9 |
| 20260504032903 | 57 | 0 | 0.0 | 0.0 | 0.00 | 0.00 | 0.00 | 64 | 1016.9 |
| 20260504032803 | 57 | 0 | 0.0 | 0.0 | 0.00 | 0.00 | 0.00 | 64 | 1016.9 |
| 20260504032703 | 57 | 244 | 0.0 | 0.9 | 0.00 | 0.00 | 0.00 | 64 | 1016.9 |
| 20260504032603 | 57 | 244 | 0.0 | 1.7 | 0.00 | 0.00 | 0.00 | 64 | 1016.9 |
| 20260504032503 | 57 | 244 | 0.0 | 1.7 | 0.00 | 0.00 | 0.00 | 64 | 1016.9 |
| 20260504032403 | 57 | 244 | 0.0 | 1.7 | 0.00 | 0.00 | 0.00 | 64 | 1016.9 |
| 20260504032304 | 57 | 244 | 0.0 | 1.7 | 0.00 | 0.00 | 0.00 | 64 | 1016.9 |
| 20260504032203 | 58 | 244 | 0.0 | 1.7 | 0.00 | 0.00 | 0.00 | 64 | 1016.9 |
| 20260504032103 | 58 | 244 | 0.0 | 1.7 | 0.00 | 0.00 | 0.00 | 64 | 1016.8 |
| 20260504032003 | 58 | 244 | 0.0 | 1.7 | 0.00 | 0.00 | 0.00 | 64 | 1016.9 |
| 20260504031903 | 58 | 244 | 0.0 | 1.7 | 0.00 | 0.00 | 0.00 | 63 | 1016.9 |
| 20260504031803 | 58 | 244 | 0.0 | 1.7 | 0.00 | 0.00 | 0.00 | 63 | 1016.9 |
| 20260504031703 | 58 | 244 | 0.0 | 1.7 | 0.00 | 0.00 | 0.00 | 63 | 1016.9 |
| 20260504031603 | 58 | 244 | 0.9 | 1.7 | 0.00 | 0.00 | 0.00 | 63 | 1016.9 |
| 20260504031503 | 58 | 244 | 0.9 | 1.7 | 0.00 | 0.00 | 0.00 | 63 | 1016.9 |
| 20260504031403 | 58 | 244 | 0.9 | 1.7 | 0.00 | 0.00 | 0.00 | 63 | 1016.9 |
| 20260504031303 | 58 | 244 | 0.0 | 1.7 | 0.00 | 0.00 | 0.00 | 63 | 1016.8 |
| 20260504031203 | 58 | 244 | 0.0 | 1.7 | 0.00 | 0.00 | 0.00 | 62 | 1016.8 |
| 20260504031103 | 58 | 244 | 0.0 | 1.7 | 0.00 | 0.00 | 0.00 | 62 | 1016.8 |
| 20260504031003 | 58 | 244 | 0.0 | 1.7 | 0.00 | 0.00 | 0.00 | 62 | 1016.9 |
| 20260504030903 | 58 | 244 | 0.0 | 1.7 | 0.00 | 0.00 | 0.00 | 61 | 1016.9 |
| 20260504030803 | 58 | 244 | 0.0 | 1.7 | 0.00 | 0.00 | 0.00 | 61 | 1016.8 |
| 20260504030703 | 58 | 244 | 0.0 | 1.7 | 0.00 | 0.00 | 0.00 | 61 | 1016.8 |
| 20260504030603 | 58 | 244 | 0.0 | 1.7 | 0.00 | 0.00 | 0.00 | 61 | 1016.9 |
| 20260504030503 | 58 | 244 | 0.0 | 1.7 | 0.00 | 0.00 | 0.00 | 62 | 1016.9 |
| 20260504030403 | 58 | 244 | 0.0 | 1.7 | 0.00 | 0.00 | 0.00 | 62 | 1016.9 |
| 20260504030303 | 58 | 244 | 0.0 | 1.7 | 0.00 | 0.00 | 0.00 | 62 | 1016.8 |
| 20260504030203 | 58 | 244 | 0.9 | 1.7 | 0.00 | 0.00 | 0.00 | 62 | 1016.8 |
| 20260504030004 | 58 | 244 | 0.9 | 1.7 | 0.00 | 0.00 | 0.00 | 62 | 1016.8 |
| 20260504025903 | 58 | 244 | 0.9 | 1.7 | 0.00 | 0.00 | 0.00 | 61 | 1016.8 |
| 20260504025803 | 58 | 244 | 0.9 | 1.7 | 0.00 | 0.00 | 0.00 | 61 | 1016.8 |
| 20260504025703 | 58 | 244 | 0.9 | 1.7 | 0.00 | 0.00 | 0.00 | 61 | 1016.8 |
| 20260504025603 | 58 | 244 | 0.9 | 1.7 | 0.00 | 0.00 | 0.00 | 62 | 1016.8 |
| 20260504025503 | 58 | 244 | 0.9 | 1.7 | 0.00 | 0.00 | 0.00 | 62 | 1016.8 |
| 20260504025404 | 58 | 244 | 0.9 | 1.7 | 0.00 | 0.00 | 0.00 | 62 | 1016.8 |
| 20260504025304 | 58 | 244 | 0.9 | 1.7 | 0.00 | 0.00 | 0.00 | 62 | 1016.9 |
| 20260504025203 | 58 | 244 | 0.9 | 1.7 | 0.00 | 0.00 | 0.00 | 62 | 1016.8 |
| 20260504025104 | 58 | 244 | 0.9 | 1.7 | 0.00 | 0.00 | 0.00 | 62 | 1016.8 |
| 20260504025003 | 58 | 244 | 0.9 | 1.7 | 0.00 | 0.00 | 0.00 | 62 | 1016.8 |
| 20260504024904 | 58 | 244 | 0.0 | 1.7 | 0.00 | 0.00 | 0.00 | 62 | 1016.8 |
| 20260504024803 | 58 | 244 | 0.0 | 1.7 | 0.00 | 0.00 | 0.00 | 62 | 1016.8 |
| 20260504024703 | 58 | 244 | 0.0 | 1.7 | 0.00 | 0.00 | 0.00 | 62 | 1016.8 |
| 20260504024603 | 58 | 244 | 0.0 | 1.7 | 0.00 | 0.00 | 0.00 | 62 | 1016.8 |
| 20260504024503 | 58 | 244 | 0.0 | 1.7 | 0.00 | 0.00 | 0.00 | 62 | 1016.9 |
| 20260504024403 | 58 | 244 | 0.0 | 1.7 | 0.00 | 0.00 | 0.00 | 62 | 1016.9 |
| 20260504024303 | 58 | 244 | 0.0 | 1.7 | 0.00 | 0.00 | 0.00 | 63 | 1016.9 |
| 20260504024203 | 58 | 244 | 0.0 | 1.7 | 0.00 | 0.00 | 0.00 | 63 | 1016.8 |
| 20260504024103 | 58 | 244 | 0.0 | 1.7 | 0.00 | 0.00 | 0.00 | 63 | 1016.8 |
| 20260504024003 | 58 | 244 | 0.0 | 1.7 | 0.00 | 0.00 | 0.00 | 62 | 1016.9 |
| 20260504023903 | 58 | 244 | 0.9 | 1.7 | 0.00 | 0.00 | 0.00 | 62 | 1017.0 |
| 20260504023803 | 58 | 244 | 0.9 | 1.7 | 0.00 | 0.00 | 0.00 | 62 | 1017.0 |
| 20260504023703 | 58 | 244 | 0.9 | 1.7 | 0.00 | 0.00 | 0.00 | 62 | 1016.9 |
| 20260504023603 | 58 | 244 | 0.9 | 1.7 | 0.00 | 0.00 | 0.00 | 61 | 1016.9 |
| 20260504023503 | 58 | 244 | 0.9 | 1.7 | 0.00 | 0.00 | 0.00 | 61 | 1016.9 |
| 20260504023403 | 58 | 244 | 0.9 | 1.7 | 0.00 | 0.00 | 0.00 | 61 | 1016.9 |
| 20260504023303 | 58 | 244 | 0.9 | 1.7 | 0.00 | 0.00 | 0.00 | 61 | 1016.9 |
| 20260504023203 | 58 | 244 | 0.9 | 1.7 | 0.00 | 0.00 | 0.00 | 61 | 1016.9 |
| 20260504023103 | 58 | 244 | 0.9 | 1.7 | 0.00 | 0.00 | 0.00 | 61 | 1016.9 |
| 20260504023003 | 58 | 244 | 0.9 | 1.7 | 0.00 | 0.00 | 0.00 | 61 | 1016.9 |
| 20260504022903 | 58 | 244 | 0.9 | 1.7 | 0.00 | 0.00 | 0.00 | 61 | 1016.9 |
| 20260504022803 | 58 | 244 | 0.9 | 1.7 | 0.00 | 0.00 | 0.00 | 62 | 1016.9 |
| 20260504022703 | 58 | 244 | 0.9 | 1.7 | 0.00 | 0.00 | 0.00 | 62 | 1016.9 |
| 20260504022603 | 58 | 244 | 0.9 | 1.7 | 0.00 | 0.00 | 0.00 | 62 | 1016.9 |
| 20260504022504 | 58 | 244 | 0.9 | 1.7 | 0.00 | 0.00 | 0.00 | 62 | 1016.9 |
| 20260504022403 | 58 | 244 | 0.9 | 1.7 | 0.00 | 0.00 | 0.00 | 62 | 1016.9 |
| 20260504022304 | 58 | 244 | 0.0 | 1.7 | 0.00 | 0.00 | 0.00 | 62 | 1016.9 |
| 20260504022203 | 58 | 244 | 0.0 | 1.7 | 0.00 | 0.00 | 0.00 | 62 | 1016.9 |
| 20260504022104 | 58 | 244 | 0.9 | 1.7 | 0.00 | 0.00 | 0.00 | 62 | 1016.9 |
| 20260504022003 | 58 | 244 | 0.9 | 1.7 | 0.00 | 0.00 | 0.00 | 62 | 1016.9 |
| 20260504021903 | 58 | 244 | 0.9 | 1.7 | 0.00 | 0.00 | 0.00 | 62 | 1016.9 |
| 20260504021803 | 58 | 244 | 0.9 | 1.7 | 0.00 | 0.00 | 0.00 | 62 | 1016.9 |
| 20260504021703 | 58 | 244 | 0.0 | 1.7 | 0.00 | 0.00 | 0.00 | 62 | 1016.9 |
| 20260504021603 | 58 | 244 | 0.0 | 1.7 | 0.00 | 0.00 | 0.00 | 62 | 1016.9 |
| 20260504021503 | 58 | 244 | 0.0 | 0.9 | 0.00 | 0.00 | 0.00 | 61 | 1016.9 |
| 20260504021403 | 58 | 244 | 0.0 | 1.7 | 0.00 | 0.00 | 0.00 | 61 | 1016.9 |
| 20260504021304 | 58 | 244 | 0.9 | 2.6 | 0.00 | 0.00 | 0.00 | 62 | 1016.9 |
| 20260504021203 | 58 | 244 | 0.9 | 2.6 | 0.00 | 0.00 | 0.00 | 61 | 1016.9 |
| 20260504021104 | 58 | 246 | 0.9 | 2.6 | 0.00 | 0.00 | 0.00 | 61 | 1017.0 |
| 20260504021003 | 59 | 248 | 0.9 | 2.6 | 0.00 | 0.00 | 0.00 | 62 | 1017.0 |
| 20260504020903 | 59 | 249 | 0.9 | 2.6 | 0.00 | 0.00 | 0.00 | 62 | 1017.0 |
| 20260504020803 | 59 | 250 | 0.9 | 2.6 | 0.00 | 0.00 | 0.00 | 62 | 1017.0 |
| 20260504020703 | 59 | 251 | 0.9 | 2.6 | 0.00 | 0.00 | 0.00 | 61 | 1017.0 |
| 20260504020603 | 59 | 251 | 0.9 | 2.6 | 0.00 | 0.00 | 0.00 | 61 | 1016.9 |
| 20260504020503 | 59 | 252 | 0.9 | 2.6 | 0.00 | 0.00 | 0.00 | 61 | 1016.9 |
| 20260504020403 | 59 | 253 | 0.9 | 2.6 | 0.00 | 0.00 | 0.00 | 61 | 1016.9 |
| 20260504020303 | 59 | 255 | 0.9 | 2.6 | 0.00 | 0.00 | 0.00 | 61 | 1016.9 |
| 20260504020203 | 59 | 259 | 0.9 | 1.7 | 0.00 | 0.00 | 0.00 | 61 | 1016.9 |
| 20260504020103 | 59 | 260 | 0.0 | 1.7 | 0.00 | 0.00 | 0.00 | 61 | 1016.9 |
| 20260504020004 | 59 | 260 | 0.0 | 1.7 | 0.00 | 0.00 | 0.00 | 61 | 1016.9 |
| 20260504015903 | 59 | 260 | 0.9 | 1.7 | 0.00 | 0.00 | 0.00 | 61 | 1016.9 |
| 20260504015803 | 59 | 260 | 0.9 | 1.7 | 0.00 | 0.00 | 0.00 | 61 | 1016.9 |
| 20260504015703 | 59 | 260 | 0.9 | 1.7 | 0.00 | 0.00 | 0.00 | 61 | 1016.9 |
| 20260504015603 | 59 | 260 | 0.9 | 1.7 | 0.00 | 0.00 | 0.00 | 61 | 1016.9 |
| 20260504015503 | 59 | 260 | 0.9 | 1.7 | 0.00 | 0.00 | 0.00 | 60 | 1016.9 |
| 20260504015403 | 59 | 260 | 0.9 | 1.7 | 0.00 | 0.00 | 0.00 | 60 | 1016.9 |
| 20260504015304 | 59 | 260 | 0.9 | 1.7 | 0.00 | 0.00 | 0.00 | 60 | 1016.9 |
| 20260504015203 | 59 | 260 | 0.9 | 1.7 | 0.00 | 0.00 | 0.00 | 60 | 1016.9 |
| 20260504015103 | 59 | 260 | 0.9 | 1.7 | 0.00 | 0.00 | 0.00 | 60 | 1016.9 |
| 20260504015003 | 59 | 260 | 0.9 | 1.7 | 0.00 | 0.00 | 0.00 | 60 | 1016.9 |
| 20260504014903 | 59 | 260 | 0.9 | 1.7 | 0.00 | 0.00 | 0.00 | 60 | 1016.9 |
| 20260504014803 | 59 | 260 | 0.9 | 2.6 | 0.00 | 0.00 | 0.00 | 60 | 1016.9 |
| 20260504014703 | 59 | 260 | 0.9 | 2.6 | 0.00 | 0.00 | 0.00 | 60 | 1016.9 |
| 20260504014603 | 59 | 260 | 0.9 | 2.6 | 0.00 | 0.00 | 0.00 | 60 | 1016.9 |
| 20260504014503 | 60 | 260 | 0.9 | 2.6 | 0.00 | 0.00 | 0.00 | 59 | 1016.9 |
| 20260504014403 | 60 | 259 | 0.9 | 2.6 | 0.00 | 0.00 | 0.00 | 59 | 1016.9 |
| 20260504014303 | 60 | 255 | 0.9 | 2.6 | 0.00 | 0.00 | 0.00 | 59 | 1016.9 |
| 20260504014203 | 60 | 255 | 1.7 | 2.6 | 0.00 | 0.00 | 0.00 | 59 | 1016.9 |
| 20260504014103 | 60 | 258 | 1.7 | 2.6 | 0.00 | 0.00 | 0.00 | 59 | 1016.9 |
| 20260504014004 | 60 | 264 | 1.7 | 2.6 | 0.00 | 0.00 | 0.00 | 59 | 1016.8 |
| 20260504013903 | 60 | 271 | 1.7 | 2.6 | 0.00 | 0.00 | 0.00 | 59 | 1016.8 |
| 20260504013804 | 60 | 277 | 1.7 | 2.6 | 0.00 | 0.00 | 0.00 | 59 | 1016.8 |
| 20260504013704 | 60 | 285 | 1.7 | 2.6 | 0.00 | 0.00 | 0.00 | 58 | 1016.8 |
| 20260504013603 | 60 | 295 | 1.7 | 2.6 | 0.00 | 0.00 | 0.00 | 58 | 1016.8 |
| 20260504013503 | 60 | 303 | 1.7 | 2.6 | 0.00 | 0.00 | 0.00 | 58 | 1016.9 |
| 20260504013403 | 60 | 314 | 1.7 | 2.6 | 0.00 | 0.00 | 0.00 | 58 | 1016.9 |
| 20260504013303 | 61 | 327 | 0.9 | 2.6 | 0.00 | 0.00 | 0.00 | 58 | 1016.8 |
| 20260504013203 | 61 | 334 | 0.9 | 2.6 | 0.00 | 0.00 | 0.00 | 58 | 1016.9 |
| 20260504013103 | 61 | 336 | 0.9 | 2.6 | 0.00 | 0.00 | 0.00 | 58 | 1016.9 |
| 20260504013003 | 61 | 338 | 0.9 | 2.6 | 0.00 | 0.00 | 0.00 | 58 | 1016.8 |
| 20260504012903 | 61 | 338 | 0.9 | 2.6 | 0.00 | 0.00 | 0.00 | 58 | 1016.8 |
| 20260504012803 | 61 | 340 | 0.9 | 2.6 | 0.00 | 0.00 | 0.00 | 58 | 1016.9 |
| 20260504012703 | 61 | 344 | 0.9 | 2.6 | 0.00 | 0.00 | 0.00 | 58 | 1016.9 |
| 20260504012604 | 61 | 348 | 0.0 | 1.7 | 0.00 | 0.00 | 0.00 | 58 | 1016.9 |
| 20260504012503 | 61 | 353 | 0.0 | 1.7 | 0.00 | 0.00 | 0.00 | 58 | 1016.9 |
| 20260504012403 | 61 | 354 | 0.0 | 0.9 | 0.00 | 0.00 | 0.00 | 58 | 1016.9 |
| 20260504012304 | 61 | 354 | 0.0 | 0.9 | 0.00 | 0.00 | 0.00 | 58 | 1016.9 |
| 20260504012203 | 61 | 354 | 0.0 | 0.9 | 0.00 | 0.00 | 0.00 | 58 | 1016.9 |
| 20260504012103 | 61 | 354 | 0.0 | 0.9 | 0.00 | 0.00 | 0.00 | 58 | 1016.9 |
| 20260504012003 | 61 | 354 | 0.0 | 0.9 | 0.00 | 0.00 | 0.00 | 58 | 1016.9 |
| 20260504011903 | 61 | 354 | 0.0 | 0.9 | 0.00 | 0.00 | 0.00 | 58 | 1016.9 |
| 20260504011803 | 61 | 354 | 0.0 | 1.7 | 0.00 | 0.00 | 0.00 | 58 | 1016.9 |
| 20260504011703 | 61 | 353 | 0.0 | 1.7 | 0.00 | 0.00 | 0.00 | 57 | 1016.9 |
| 20260504011603 | 61 | 350 | 0.0 | 2.6 | 0.00 | 0.00 | 0.00 | 57 | 1016.9 |
| 20260504011503 | 61 | 350 | 0.9 | 2.6 | 0.00 | 0.00 | 0.00 | 57 | 1016.8 |
| 20260504011403 | 61 | 347 | 0.9 | 2.6 | 0.00 | 0.00 | 0.00 | 57 | 1016.9 |
| 20260504011303 | 61 | 344 | 0.9 | 2.6 | 0.00 | 0.00 | 0.00 | 57 | 1016.9 |
| 20260504011203 | 61 | 341 | 0.9 | 2.6 | 0.00 | 0.00 | 0.00 | 57 | 1016.9 |
| 20260504011103 | 61 | 339 | 0.9 | 2.6 | 0.00 | 0.00 | 0.00 | 57 | 1016.9 |
| 20260504011003 | 61 | 335 | 0.9 | 2.6 | 0.00 | 0.00 | 0.00 | 57 | 1016.9 |
| 20260504010903 | 61 | 335 | 0.9 | 2.6 | 0.00 | 0.00 | 0.00 | 56 | 1016.9 |
| 20260504010803 | 61 | 332 | 0.9 | 2.6 | 0.00 | 0.00 | 0.00 | 56 | 1016.9 |
| 20260504010703 | 61 | 329 | 0.9 | 2.6 | 0.00 | 0.00 | 0.00 | 56 | 1016.9 |
| 20260504010603 | 61 | 326 | 0.9 | 2.6 | 0.00 | 0.00 | 0.00 | 56 | 1016.9 |
| 20260504010503 | 61 | 323 | 0.9 | 2.6 | 0.00 | 0.00 | 0.00 | 56 | 1016.9 |
| 20260504010403 | 61 | 321 | 0.9 | 2.6 | 0.00 | 0.00 | 0.00 | 56 | 1017.0 |
| 20260504010303 | 61 | 320 | 0.9 | 2.6 | 0.00 | 0.00 | 0.00 | 56 | 1017.0 |
| 20260504010204 | 61 | 319 | 0.9 | 2.6 | 0.00 | 0.00 | 0.00 | 56 | 1016.9 |
| 20260504010003 | 61 | 317 | 0.9 | 2.6 | 0.00 | 0.00 | 0.00 | 55 | 1016.9 |
| 20260504005903 | 61 | 317 | 0.9 | 2.6 | 0.00 | 0.00 | 0.00 | 55 | 1016.9 |
| 20260504005803 | 61 | 318 | 0.9 | 2.6 | 0.00 | 0.00 | 0.00 | 55 | 1016.9 |
| 20260504005703 | 61 | 323 | 0.9 | 3.5 | 0.00 | 0.00 | 0.00 | 55 | 1016.8 |
| 20260504005603 | 61 | 330 | 0.9 | 3.5 | 0.00 | 0.00 | 0.00 | 55 | 1016.8 |
| 20260504005503 | 61 | 334 | 1.7 | 3.5 | 0.00 | 0.00 | 0.00 | 55 | 1016.8 |
| 20260504005403 | 62 | 338 | 1.7 | 3.5 | 0.00 | 0.00 | 0.00 | 55 | 1016.9 |
| 20260504005304 | 62 | 343 | 1.7 | 3.5 | 0.00 | 0.00 | 0.00 | 55 | 1016.9 |
| 20260504005203 | 62 | 345 | 1.7 | 3.5 | 0.00 | 0.00 | 0.00 | 55 | 1016.9 |
| 20260504005103 | 62 | 348 | 1.7 | 3.5 | 0.00 | 0.00 | 0.00 | 54 | 1016.8 |
| 20260504005004 | 62 | 350 | 1.7 | 3.5 | 0.00 | 0.00 | 0.00 | 54 | 1016.8 |
| 20260504004903 | 62 | 349 | 1.7 | 3.5 | 0.00 | 0.00 | 0.00 | 54 | 1016.9 |
| 20260504004803 | 62 | 349 | 1.7 | 3.5 | 0.00 | 0.00 | 0.00 | 53 | 1016.9 |
| 20260504004703 | 62 | 348 | 1.7 | 3.5 | 0.00 | 0.00 | 0.00 | 53 | 1016.9 |
| 20260504004603 | 62 | 347 | 1.7 | 3.5 | 0.00 | 0.00 | 0.00 | 53 | 1016.8 |
| 20260504004504 | 62 | 346 | 1.7 | 3.5 | 0.00 | 0.00 | 0.00 | 53 | 1016.8 |
| 20260504004403 | 62 | 344 | 1.7 | 3.5 | 0.00 | 0.00 | 0.00 | 53 | 1016.9 |
| 20260504004303 | 62 | 340 | 1.7 | 3.5 | 0.00 | 0.00 | 0.00 | 53 | 1016.9 |
| 20260504004203 | 62 | 337 | 1.7 | 3.5 | 0.00 | 0.00 | 0.00 | 53 | 1016.9 |
| 20260504004103 | 62 | 335 | 1.7 | 3.5 | 0.00 | 0.00 | 0.00 | 53 | 1016.9 |
| 20260504004003 | 62 | 333 | 1.7 | 3.5 | 0.00 | 0.00 | 0.00 | 53 | 1016.9 |
| 20260504003903 | 62 | 332 | 1.7 | 3.5 | 0.00 | 0.00 | 0.00 | 52 | 1016.9 |
| 20260504003803 | 62 | 331 | 1.7 | 3.5 | 0.00 | 0.00 | 0.00 | 52 | 1016.9 |
| 20260504003703 | 62 | 330 | 1.7 | 3.5 | 0.00 | 0.00 | 0.00 | 52 | 1016.9 |
| 20260504003603 | 62 | 329 | 1.7 | 3.5 | 0.00 | 0.00 | 0.00 | 52 | 1016.9 |
| 20260504003503 | 62 | 329 | 1.7 | 3.5 | 0.00 | 0.00 | 0.00 | 52 | 1017.0 |
| 20260504003403 | 62 | 329 | 1.7 | 3.5 | 0.00 | 0.00 | 0.00 | 52 | 1017.0 |
| 20260504003303 | 62 | 330 | 1.7 | 3.5 | 0.00 | 0.00 | 0.00 | 52 | 1017.0 |
| 20260504003203 | 62 | 331 | 1.7 | 3.5 | 0.00 | 0.00 | 0.00 | 52 | 1017.0 |
| 20260504003103 | 62 | 330 | 1.7 | 3.5 | 0.00 | 0.00 | 0.00 | 51 | 1017.0 |
| 20260504003003 | 62 | 329 | 1.7 | 3.5 | 0.00 | 0.00 | 0.00 | 51 | 1017.0 |
| 20260504002903 | 62 | 329 | 1.7 | 3.5 | 0.00 | 0.00 | 0.00 | 51 | 1017.0 |
| 20260504002803 | 62 | 329 | 1.7 | 3.5 | 0.00 | 0.00 | 0.00 | 51 | 1017.0 |
| 20260504002703 | 62 | 328 | 1.7 | 3.5 | 0.00 | 0.00 | 0.00 | 51 | 1017.0 |
| 20260504002603 | 62 | 327 | 1.7 | 3.5 | 0.00 | 0.00 | 0.00 | 51 | 1017.1 |
| 20260504002503 | 62 | 326 | 1.7 | 3.5 | 0.00 | 0.00 | 0.00 | 50 | 1017.1 |
| 20260504002403 | 62 | 325 | 1.7 | 3.5 | 0.00 | 0.00 | 0.00 | 50 | 1017.1 |
| 20260504002304 | 62 | 326 | 1.7 | 3.5 | 0.00 | 0.00 | 0.00 | 50 | 1017.1 |
| 20260504002203 | 62 | 324 | 1.7 | 3.5 | 0.00 | 0.00 | 0.00 | 50 | 1017.1 |
| 20260504002103 | 62 | 325 | 1.7 | 3.5 | 0.00 | 0.00 | 0.00 | 50 | 1017.1 |
| 20260504002003 | 62 | 324 | 1.7 | 2.6 | 0.00 | 0.00 | 0.00 | 50 | 1017.1 |
| 20260504001903 | 62 | 324 | 1.7 | 2.6 | 0.00 | 0.00 | 0.00 | 50 | 1017.1 |
| 20260504001803 | 62 | 326 | 1.7 | 2.6 | 0.00 | 0.00 | 0.00 | 50 | 1017.2 |
| 20260504001703 | 62 | 326 | 1.7 | 2.6 | 0.00 | 0.00 | 0.00 | 50 | 1017.2 |
| 20260504001603 | 62 | 327 | 1.7 | 2.6 | 0.00 | 0.00 | 0.00 | 50 | 1017.2 |
| 20260504001503 | 62 | 327 | 1.7 | 2.6 | 0.00 | 0.00 | 0.00 | 50 | 1017.2 |
| 20260504001403 | 62 | 326 | 1.7 | 2.6 | 0.00 | 0.00 | 0.00 | 50 | 1017.2 |
| 20260504001303 | 62 | 324 | 1.7 | 2.6 | 0.00 | 0.00 | 0.00 | 50 | 1017.2 |
| 20260504001203 | 62 | 326 | 1.7 | 2.6 | 0.00 | 0.00 | 0.00 | 50 | 1017.2 |
| 20260504001103 | 62 | 326 | 1.7 | 2.6 | 0.00 | 0.00 | 0.00 | 50 | 1017.2 |
| 20260504001003 | 62 | 328 | 1.7 | 2.6 | 0.00 | 0.00 | 0.00 | 51 | 1017.3 |
| 20260504000903 | 62 | 328 | 1.7 | 2.6 | 0.00 | 0.00 | 0.00 | 50 | 1017.3 |
| 20260504000803 | 62 | 327 | 1.7 | 2.6 | 0.00 | 0.00 | 0.00 | 50 | 1017.3 |
| 20260504000703 | 62 | 328 | 1.7 | 2.6 | 0.00 | 0.00 | 0.00 | 51 | 1017.3 |
| 20260504000603 | 62 | 328 | 1.7 | 2.6 | 0.00 | 0.00 | 0.00 | 50 | 1017.3 |
| 20260504000503 | 62 | 329 | 1.7 | 2.6 | 0.00 | 0.00 | 0.00 | 51 | 1017.3 |
| 20260504000403 | 62 | 329 | 1.7 | 2.6 | 0.00 | 0.00 | 0.00 | 50 | 1017.4 |
| 20260504000303 | 62 | 329 | 1.7 | 2.6 | 0.00 | 0.00 | 0.00 | 50 | 1017.4 |
| 20260504000204 | 62 | 329 | 1.7 | 3.5 | 0.00 | 0.00 | 0.00 | 50 | 1017.3 |
| 20260504000104 | 62 | 327 | 1.7 | 3.5 | 0.00 | 0.00 | 0.00 | 50 | 1017.3 |
| 20260504000004 | 62 | 326 | 1.7 | 3.5 | 0.00 | 0.00 | 0.00 | 50 | 1017.3 |
| 20260503235903 | 62 | 326 | 1.7 | 3.5 | 0.00 | 0.00 | 0.00 | 50 | 1017.4 |
| 20260503235803 | 62 | 325 | 0.9 | 3.5 | 0.00 | 0.00 | 0.00 | 50 | 1017.4 |
| 20260503235703 | 62 | 325 | 0.9 | 3.5 | 0.00 | 0.00 | 0.00 | 50 | 1017.3 |
| 20260503235603 | 62 | 325 | 0.9 | 3.5 | 0.00 | 0.00 | 0.00 | 50 | 1017.3 |
| 20260503235503 | 62 | 326 | 0.9 | 3.5 | 0.00 | 0.00 | 0.00 | 50 | 1017.3 |
| 20260503235403 | 62 | 324 | 0.9 | 3.5 | 0.00 | 0.00 | 0.00 | 50 | 1017.3 |
| 20260503235304 | 62 | 322 | 0.9 | 3.5 | 0.00 | 0.00 | 0.00 | 50 | 1017.3 |
| 20260503235203 | 62 | 321 | 0.9 | 2.6 | 0.00 | 0.00 | 0.00 | 50 | 1017.3 |
| 20260503235103 | 62 | 322 | 0.9 | 2.6 | 0.00 | 0.00 | 0.00 | 50 | 1017.3 |
| 20260503235003 | 62 | 321 | 0.9 | 2.6 | 0.00 | 0.00 | 0.00 | 50 | 1017.4 |
| 20260503234903 | 62 | 316 | 0.9 | 2.6 | 0.00 | 0.00 | 0.00 | 50 | 1017.3 |
| 20260503234803 | 62 | 316 | 0.9 | 2.6 | 0.00 | 0.00 | 0.00 | 50 | 1017.3 |
| 20260503234703 | 63 | 313 | 0.9 | 2.6 | 0.00 | 0.00 | 0.00 | 50 | 1017.4 |
| 20260503234603 | 63 | 310 | 0.9 | 2.6 | 0.00 | 0.00 | 0.00 | 49 | 1017.3 |
| 20260503234503 | 63 | 300 | 0.9 | 2.6 | 0.00 | 0.00 | 0.00 | 49 | 1017.3 |
| 20260503234403 | 63 | 297 | 0.9 | 2.6 | 0.00 | 0.00 | 0.00 | 49 | 1017.4 |
| 20260503234303 | 63 | 292 | 0.9 | 3.5 | 0.00 | 0.00 | 0.00 | 49 | 1017.4 |
| 20260503234203 | 63 | 288 | 0.9 | 3.5 | 0.00 | 0.00 | 0.00 | 49 | 1017.4 |
| 20260503234103 | 63 | 286 | 0.9 | 3.5 | 0.00 | 0.00 | 0.00 | 49 | 1017.4 |
| 20260503234003 | 63 | 282 | 0.9 | 3.5 | 0.00 | 0.00 | 0.00 | 49 | 1017.4 |
| 20260503233903 | 63 | 283 | 0.9 | 3.5 | 0.00 | 0.00 | 0.00 | 49 | 1017.4 |
| 20260503233803 | 63 | 285 | 0.9 | 3.5 | 0.00 | 0.00 | 0.00 | 49 | 1017.4 |
| 20260503233703 | 63 | 287 | 1.7 | 3.5 | 0.00 | 0.00 | 0.00 | 49 | 1017.5 |
| 20260503233603 | 63 | 285 | 1.7 | 3.5 | 0.00 | 0.00 | 0.00 | 48 | 1017.5 |
| 20260503233503 | 63 | 287 | 1.7 | 3.5 | 0.00 | 0.00 | 0.00 | 48 | 1017.5 |
| 20260503233403 | 63 | 285 | 1.7 | 5.2 | 0.00 | 0.00 | 0.00 | 48 | 1017.5 |
| 20260503233303 | 63 | 287 | 1.7 | 5.2 | 0.00 | 0.00 | 0.00 | 49 | 1017.5 |
| 20260503233204 | 63 | 287 | 1.7 | 5.2 | 0.00 | 0.00 | 0.00 | 48 | 1017.4 |
| 20260503233103 | 63 | 286 | 1.7 | 5.2 | 0.00 | 0.00 | 0.00 | 48 | 1017.4 |
| 20260503233003 | 63 | 286 | 1.7 | 5.2 | 0.00 | 0.00 | 0.00 | 48 | 1017.4 |
| 20260503232904 | 63 | 284 | 1.7 | 5.2 | 0.00 | 0.00 | 0.00 | 48 | 1017.6 |
| 20260503232803 | 63 | 280 | 1.7 | 5.2 | 0.00 | 0.00 | 0.00 | 48 | 1017.5 |
| 20260503232703 | 63 | 278 | 2.6 | 5.2 | 0.00 | 0.00 | 0.00 | 48 | 1017.5 |
| 20260503232604 | 63 | 278 | 2.6 | 5.2 | 0.00 | 0.00 | 0.00 | 48 | 1017.5 |
| 20260503232503 | 63 | 278 | 2.6 | 5.2 | 0.00 | 0.00 | 0.00 | 48 | 1017.5 |
| 20260503232403 | 63 | 277 | 2.6 | 5.2 | 0.00 | 0.00 | 0.00 | 48 | 1017.6 |
| 20260503232305 | 63 | 277 | 2.6 | 5.2 | 0.00 | 0.00 | 0.00 | 48 | 1017.6 |
| 20260503232203 | 63 | 276 | 2.6 | 5.2 | 0.00 | 0.00 | 0.00 | 48 | 1017.6 |
| 20260503232103 | 63 | 277 | 2.6 | 5.2 | 0.00 | 0.00 | 0.00 | 48 | 1017.6 |
| 20260503232003 | 63 | 277 | 2.6 | 5.2 | 0.00 | 0.00 | 0.00 | 48 | 1017.6 |
| 20260503231903 | 63 | 277 | 2.6 | 5.2 | 0.00 | 0.00 | 0.00 | 48 | 1017.6 |
| 20260503231803 | 63 | 279 | 2.6 | 5.2 | 0.00 | 0.00 | 0.00 | 48 | 1017.6 |
| 20260503231703 | 63 | 281 | 1.7 | 5.2 | 0.00 | 0.00 | 0.00 | 48 | 1017.6 |
| 20260503231603 | 63 | 282 | 1.7 | 5.2 | 0.00 | 0.00 | 0.00 | 48 | 1017.6 |
| 20260503231503 | 63 | 283 | 1.7 | 5.2 | 0.00 | 0.00 | 0.00 | 49 | 1017.7 |
| 20260503231403 | 63 | 284 | 1.7 | 5.2 | 0.00 | 0.00 | 0.00 | 49 | 1017.7 |
| 20260503231303 | 63 | 282 | 1.7 | 5.2 | 0.00 | 0.00 | 0.00 | 49 | 1017.7 |
| 20260503231203 | 63 | 284 | 1.7 | 5.2 | 0.00 | 0.00 | 0.00 | 49 | 1017.7 |
| 20260503231103 | 63 | 284 | 1.7 | 4.3 | 0.00 | 0.00 | 0.00 | 49 | 1017.7 |
| 20260503231003 | 63 | 286 | 1.7 | 4.3 | 0.00 | 0.00 | 0.00 | 49 | 1017.7 |
| 20260503230903 | 63 | 286 | 1.7 | 3.5 | 0.00 | 0.00 | 0.00 | 49 | 1017.7 |
| 20260503230803 | 63 | 287 | 1.7 | 3.5 | 0.00 | 0.00 | 0.00 | 49 | 1017.7 |
| 20260503230703 | 63 | 288 | 0.9 | 3.5 | 0.00 | 0.00 | 0.00 | 49 | 1017.7 |
| 20260503230603 | 63 | 290 | 0.9 | 3.5 | 0.00 | 0.00 | 0.00 | 49 | 1017.7 |
| 20260503230503 | 63 | 292 | 0.9 | 3.5 | 0.00 | 0.00 | 0.00 | 49 | 1017.6 |
| 20260503230403 | 63 | 295 | 0.9 | 3.5 | 0.00 | 0.00 | 0.00 | 49 | 1017.6 |
| 20260503230303 | 63 | 296 | 0.9 | 3.5 | 0.00 | 0.00 | 0.00 | 49 | 1017.6 |
| 20260503230203 | 63 | 295 | 0.9 | 3.5 | 0.00 | 0.00 | 0.00 | 49 | 1017.6 |
| 20260503230103 | 63 | 293 | 0.9 | 3.5 | 0.00 | 0.00 | 0.00 | 49 | 1017.7 |
| 20260503230004 | 63 | 293 | 0.9 | 3.5 | 0.00 | 0.00 | 0.00 | 49 | 1017.7 |
| 20260503225903 | 63 | 296 | 0.9 | 2.6 | 0.00 | 0.00 | 0.00 | 49 | 1017.7 |
| 20260503225803 | 63 | 297 | 0.9 | 2.6 | 0.00 | 0.00 | 0.00 | 49 | 1017.7 |
| 20260503225703 | 63 | 299 | 0.9 | 2.6 | 0.00 | 0.00 | 0.00 | 49 | 1017.8 |
| 20260503225603 | 63 | 300 | 0.9 | 2.6 | 0.00 | 0.00 | 0.00 | 49 | 1017.8 |
| 20260503225503 | 63 | 301 | 0.9 | 2.6 | 0.00 | 0.00 | 0.00 | 49 | 1017.8 |
| 20260503225403 | 63 | 302 | 0.9 | 2.6 | 0.00 | 0.00 | 0.00 | 49 | 1017.8 |
| 20260503225304 | 63 | 304 | 0.9 | 2.6 | 0.00 | 0.00 | 0.00 | 49 | 1017.7 |
| 20260503225203 | 63 | 308 | 0.9 | 2.6 | 0.00 | 0.00 | 0.00 | 49 | 1017.7 |
| 20260503225103 | 63 | 309 | 0.9 | 2.6 | 0.00 | 0.00 | 0.00 | 49 | 1017.7 |
| 20260503225004 | 63 | 307 | 0.9 | 2.6 | 0.00 | 0.00 | 0.00 | 49 | 1017.8 |
| 20260503224904 | 63 | 303 | 0.9 | 2.6 | 0.00 | 0.00 | 0.00 | 49 | 1017.8 |
| 20260503224803 | 63 | 302 | 0.9 | 2.6 | 0.00 | 0.00 | 0.00 | 49 | 1017.8 |
| 20260503224703 | 63 | 300 | 0.9 | 2.6 | 0.00 | 0.00 | 0.00 | 49 | 1017.7 |
| 20260503224603 | 63 | 298 | 0.9 | 2.6 | 0.00 | 0.00 | 0.00 | 49 | 1017.7 |
| 20260503224503 | 63 | 297 | 0.9 | 2.6 | 0.00 | 0.00 | 0.00 | 49 | 1017.7 |
| 20260503224404 | 63 | 296 | 0.9 | 2.6 | 0.00 | 0.00 | 0.00 | 49 | 1017.7 |
| 20260503224303 | 63 | 296 | 0.9 | 2.6 | 0.00 | 0.00 | 0.00 | 49 | 1017.7 |
| 20260503224203 | 63 | 295 | 0.9 | 2.6 | 0.00 | 0.00 | 0.00 | 49 | 1017.8 |
| 20260503224103 | 63 | 298 | 0.9 | 2.6 | 0.00 | 0.00 | 0.00 | 49 | 1017.8 |
| 20260503224003 | 63 | 303 | 0.9 | 2.6 | 0.00 | 0.00 | 0.00 | 49 | 1017.8 |
| 20260503223903 | 63 | 308 | 0.9 | 2.6 | 0.00 | 0.00 | 0.00 | 49 | 1017.8 |
| 20260503223803 | 63 | 312 | 0.9 | 2.6 | 0.00 | 0.00 | 0.00 | 49 | 1017.8 |
| 20260503223703 | 63 | 316 | 0.9 | 2.6 | 0.00 | 0.00 | 0.00 | 49 | 1017.8 |
| 20260503223603 | 64 | 318 | 0.9 | 2.6 | 0.00 | 0.00 | 0.00 | 49 | 1017.8 |
| 20260503223503 | 64 | 319 | 0.9 | 1.7 | 0.00 | 0.00 | 0.00 | 49 | 1017.8 |
| 20260503223403 | 64 | 312 | 0.9 | 1.7 | 0.00 | 0.00 | 0.00 | 49 | 1017.7 |
| 20260503223303 | 64 | 308 | 0.9 | 1.7 | 0.00 | 0.00 | 0.00 | 49 | 1017.7 |
| 20260503223203 | 64 | 307 | 0.9 | 1.7 | 0.00 | 0.00 | 0.00 | 49 | 1017.7 |
| 20260503223103 | 64 | 306 | 0.9 | 1.7 | 0.00 | 0.00 | 0.00 | 49 | 1017.7 |
| 20260503223003 | 64 | 303 | 0.9 | 1.7 | 0.00 | 0.00 | 0.00 | 49 | 1017.7 |
| 20260503222903 | 64 | 301 | 0.9 | 1.7 | 0.00 | 0.00 | 0.00 | 49 | 1017.8 |
| 20260503222803 | 64 | 303 | 0.9 | 1.7 | 0.00 | 0.00 | 0.00 | 49 | 1017.8 |
| 20260503222703 | 64 | 303 | 0.9 | 1.7 | 0.00 | 0.00 | 0.00 | 48 | 1017.7 |
| 20260503222603 | 64 | 304 | 0.9 | 1.7 | 0.00 | 0.00 | 0.00 | 48 | 1017.8 |
| 20260503222503 | 64 | 304 | 0.9 | 1.7 | 0.00 | 0.00 | 0.00 | 48 | 1017.8 |
| 20260503222403 | 64 | 312 | 0.9 | 1.7 | 0.00 | 0.00 | 0.00 | 48 | 1017.7 |
| 20260503222304 | 64 | 316 | 0.9 | 1.7 | 0.00 | 0.00 | 0.00 | 48 | 1017.7 |
| 20260503222203 | 64 | 317 | 0.9 | 1.7 | 0.00 | 0.00 | 0.00 | 48 | 1017.7 |
| 20260503222103 | 64 | 318 | 0.9 | 1.7 | 0.00 | 0.00 | 0.00 | 48 | 1017.8 |
| 20260503222003 | 64 | 318 | 0.9 | 2.6 | 0.00 | 0.00 | 0.00 | 48 | 1017.8 |
| 20260503221903 | 64 | 314 | 0.9 | 2.6 | 0.00 | 0.00 | 0.00 | 48 | 1017.7 |
| 20260503221803 | 64 | 310 | 0.9 | 3.5 | 0.00 | 0.00 | 0.00 | 48 | 1017.7 |
| 20260503221703 | 64 | 307 | 0.9 | 3.5 | 0.00 | 0.00 | 0.00 | 48 | 1017.7 |
| 20260503221603 | 64 | 303 | 0.9 | 3.5 | 0.00 | 0.00 | 0.00 | 48 | 1017.7 |
| 20260503221503 | 64 | 298 | 0.9 | 3.5 | 0.00 | 0.00 | 0.00 | 48 | 1017.7 |
| 20260503221403 | 64 | 296 | 0.9 | 3.5 | 0.00 | 0.00 | 0.00 | 47 | 1017.7 |
| 20260503221303 | 64 | 295 | 0.9 | 3.5 | 0.00 | 0.00 | 0.00 | 47 | 1017.7 |
| 20260503221203 | 64 | 293 | 1.7 | 3.5 | 0.00 | 0.00 | 0.00 | 47 | 1017.7 |
| 20260503221103 | 64 | 291 | 1.7 | 3.5 | 0.00 | 0.00 | 0.00 | 47 | 1017.7 |
| 20260503221003 | 64 | 289 | 1.7 | 3.5 | 0.00 | 0.00 | 0.00 | 47 | 1017.7 |
| 20260503220903 | 64 | 289 | 1.7 | 3.5 | 0.00 | 0.00 | 0.00 | 47 | 1017.7 |
| 20260503220803 | 64 | 286 | 0.9 | 2.6 | 0.00 | 0.00 | 0.00 | 47 | 1017.7 |
| 20260503220703 | 64 | 283 | 1.7 | 3.5 | 0.00 | 0.00 | 0.00 | 47 | 1017.7 |
| 20260503220603 | 64 | 282 | 1.7 | 3.5 | 0.00 | 0.00 | 0.00 | 47 | 1017.7 |
| 20260503220503 | 64 | 282 | 1.7 | 3.5 | 0.00 | 0.00 | 0.00 | 47 | 1017.7 |
| 20260503220403 | 64 | 282 | 1.7 | 3.5 | 0.00 | 0.00 | 0.00 | 47 | 1017.7 |
| 20260503220303 | 64 | 281 | 1.7 | 3.5 | 0.00 | 0.00 | 0.00 | 47 | 1017.7 |
| 20260503220203 | 64 | 281 | 1.7 | 3.5 | 0.00 | 0.00 | 0.00 | 47 | 1017.7 |
| 20260503220106 | 64 | 282 | 1.7 | 3.5 | 0.00 | 0.00 | 0.00 | 47 | 1017.7 |
| 20260503220030 | 64 | 281 | 0.9 | 3.5 | 0.00 | 0.00 | 0.00 | 47 | 1017.7 |
| 20260503215903 | 64 | 282 | 0.9 | 3.5 | 0.00 | 0.00 | 0.00 | 47 | 1017.7 |
| 20260503215803 | 64 | 283 | 0.9 | 3.5 | 0.00 | 0.00 | 0.00 | 47 | 1017.6 |
| 20260503215703 | 64 | 283 | 0.9 | 2.6 | 0.00 | 0.00 | 0.00 | 47 | 1017.6 |
| 20260503215603 | 64 | 285 | 0.9 | 2.6 | 0.00 | 0.00 | 0.00 | 47 | 1017.7 |
| 20260503215503 | 64 | 286 | 0.9 | 2.6 | 0.00 | 0.00 | 0.00 | 48 | 1017.7 |
| 20260503215404 | 64 | 284 | 0.9 | 2.6 | 0.00 | 0.00 | 0.00 | 47 | 1017.7 |
| 20260503215304 | 64 | 284 | 0.9 | 2.6 | 0.00 | 0.00 | 0.00 | 48 | 1017.6 |
| 20260503215203 | 64 | 283 | 0.9 | 3.5 | 0.00 | 0.00 | 0.00 | 48 | 1017.6 |
| 20260503215103 | 64 | 282 | 0.9 | 3.5 | 0.00 | 0.00 | 0.00 | 47 | 1017.6 |
| 20260503215003 | 64 | 281 | 0.9 | 3.5 | 0.00 | 0.00 | 0.00 | 47 | 1017.6 |
| 20260503214903 | 64 | 280 | 0.9 | 3.5 | 0.00 | 0.00 | 0.00 | 48 | 1017.6 |
| 20260503214803 | 64 | 280 | 0.9 | 3.5 | 0.00 | 0.00 | 0.00 | 47 | 1017.5 |
| 20260503214703 | 64 | 282 | 0.9 | 3.5 | 0.00 | 0.00 | 0.00 | 47 | 1017.5 |
| 20260503214603 | 64 | 284 | 0.9 | 3.5 | 0.00 | 0.00 | 0.00 | 47 | 1017.6 |
| 20260503214503 | 65 | 284 | 0.9 | 3.5 | 0.00 | 0.00 | 0.00 | 47 | 1017.5 |
| 20260503214403 | 64 | 286 | 0.9 | 3.5 | 0.00 | 0.00 | 0.00 | 48 | 1017.5 |
| 20260503214303 | 65 | 288 | 1.7 | 3.5 | 0.00 | 0.00 | 0.00 | 48 | 1017.6 |
| 20260503214203 | 65 | 290 | 0.9 | 3.5 | 0.00 | 0.00 | 0.00 | 48 | 1017.6 |
| 20260503214103 | 65 | 291 | 1.7 | 3.5 | 0.00 | 0.00 | 0.00 | 47 | 1017.5 |
| 20260503214003 | 65 | 293 | 1.7 | 3.5 | 0.00 | 0.00 | 0.00 | 48 | 1017.5 |
| 20260503213903 | 65 | 294 | 1.7 | 3.5 | 0.00 | 0.00 | 0.00 | 48 | 1017.5 |
| 20260503213803 | 65 | 294 | 1.7 | 3.5 | 0.00 | 0.00 | 0.00 | 48 | 1017.5 |
| 20260503213703 | 65 | 293 | 1.7 | 3.5 | 0.00 | 0.00 | 0.00 | 47 | 1017.5 |
| 20260503213603 | 65 | 291 | 1.7 | 3.5 | 0.00 | 0.00 | 0.00 | 47 | 1017.5 |
| 20260503213503 | 65 | 291 | 1.7 | 3.5 | 0.00 | 0.00 | 0.00 | 47 | 1017.6 |
| 20260503213403 | 65 | 289 | 1.7 | 3.5 | 0.00 | 0.00 | 0.00 | 47 | 1017.6 |
| 20260503213303 | 65 | 288 | 1.7 | 3.5 | 0.00 | 0.00 | 0.00 | 47 | 1017.5 |
| 20260503213203 | 65 | 289 | 1.7 | 3.5 | 0.00 | 0.00 | 0.00 | 47 | 1017.4 |
| 20260503213103 | 65 | 287 | 1.7 | 3.5 | 0.00 | 0.00 | 0.00 | 47 | 1017.4 |
| 20260503213003 | 65 | 286 | 1.7 | 3.5 | 0.00 | 0.00 | 0.00 | 47 | 1017.6 |
| 20260503212903 | 65 | 286 | 1.7 | 3.5 | 0.00 | 0.00 | 0.00 | 47 | 1017.6 |
| 20260503212803 | 65 | 285 | 1.7 | 3.5 | 0.00 | 0.00 | 0.00 | 47 | 1017.5 |
| 20260503212703 | 65 | 282 | 1.7 | 3.5 | 0.00 | 0.00 | 0.00 | 47 | 1017.5 |
| 20260503212603 | 65 | 279 | 1.7 | 3.5 | 0.00 | 0.00 | 0.00 | 47 | 1017.5 |
| 20260503212503 | 65 | 278 | 1.7 | 3.5 | 0.00 | 0.00 | 0.00 | 47 | 1017.5 |
| 20260503212403 | 65 | 278 | 1.7 | 3.5 | 0.00 | 0.00 | 0.00 | 47 | 1017.5 |
| 20260503212304 | 65 | 277 | 1.7 | 3.5 | 0.00 | 0.00 | 0.00 | 47 | 1017.5 |
| 20260503212203 | 65 | 273 | 1.7 | 3.5 | 0.00 | 0.00 | 0.00 | 48 | 1017.5 |
| 20260503212103 | 65 | 272 | 1.7 | 3.5 | 0.00 | 0.00 | 0.00 | 47 | 1017.5 |
| 20260503212003 | 65 | 270 | 1.7 | 3.5 | 0.00 | 0.00 | 0.00 | 48 | 1017.5 |
| 20260503211903 | 65 | 269 | 1.7 | 3.5 | 0.00 | 0.00 | 0.00 | 48 | 1017.5 |
| 20260503211803 | 65 | 268 | 1.7 | 3.5 | 0.00 | 0.00 | 0.00 | 48 | 1017.5 |
| 20260503211703 | 65 | 269 | 1.7 | 3.5 | 0.00 | 0.00 | 0.00 | 47 | 1017.4 |
| 20260503211603 | 65 | 270 | 1.7 | 3.5 | 0.00 | 0.00 | 0.00 | 47 | 1017.4 |
| 20260503211503 | 65 | 271 | 1.7 | 2.6 | 0.00 | 0.00 | 0.00 | 47 | 1017.4 |
| 20260503211403 | 65 | 271 | 1.7 | 2.6 | 0.00 | 0.00 | 0.00 | 47 | 1017.4 |
| 20260503211303 | 65 | 270 | 1.7 | 2.6 | 0.00 | 0.00 | 0.00 | 47 | 1017.4 |
| 20260503211203 | 65 | 272 | 1.7 | 2.6 | 0.00 | 0.00 | 0.00 | 47 | 1017.4 |
| 20260503211103 | 65 | 273 | 1.7 | 2.6 | 0.00 | 0.00 | 0.00 | 47 | 1017.4 |
| 20260503211003 | 65 | 275 | 1.7 | 2.6 | 0.00 | 0.00 | 0.00 | 47 | 1017.3 |
| 20260503210903 | 65 | 274 | 1.7 | 2.6 | 0.00 | 0.00 | 0.00 | 47 | 1017.4 |
| 20260503210803 | 65 | 275 | 1.7 | 2.6 | 0.00 | 0.00 | 0.00 | 47 | 1017.4 |
| 20260503210703 | 65 | 276 | 1.7 | 2.6 | 0.00 | 0.00 | 0.00 | 47 | 1017.3 |
| 20260503210603 | 65 | 277 | 1.7 | 3.5 | 0.00 | 0.00 | 0.00 | 47 | 1017.3 |
| 20260503210503 | 65 | 275 | 1.7 | 3.5 | 0.00 | 0.00 | 0.00 | 47 | 1017.4 |
| 20260503210403 | 65 | 276 | 1.7 | 3.5 | 0.00 | 0.00 | 0.00 | 47 | 1017.3 |
| 20260503210303 | 65 | 276 | 1.7 | 3.5 | 0.00 | 0.00 | 0.00 | 47 | 1017.3 |
| 20260503210203 | 65 | 276 | 1.7 | 3.5 | 0.00 | 0.00 | 0.00 | 47 | 1017.4 |
| 20260503210103 | 65 | 276 | 1.7 | 3.5 | 0.00 | 0.00 | 0.00 | 47 | 1017.4 |
| 20260503210005 | 65 | 274 | 1.7 | 4.3 | 0.00 | 0.00 | 0.00 | 47 | 1017.4 |
| 20260503205904 | 65 | 275 | 1.7 | 4.3 | 0.00 | 0.00 | 0.00 | 47 | 1017.4 |
| 20260503205803 | 66 | 274 | 1.7 | 4.3 | 0.00 | 0.00 | 0.00 | 47 | 1017.4 |
| 20260503205703 | 66 | 273 | 1.7 | 4.3 | 0.00 | 0.00 | 0.00 | 47 | 1017.4 |
| 20260503205603 | 66 | 274 | 1.7 | 4.3 | 0.00 | 0.00 | 0.00 | 47 | 1017.4 |
| 20260503205503 | 66 | 274 | 1.7 | 4.3 | 0.00 | 0.00 | 0.00 | 47 | 1017.4 |
| 20260503205403 | 66 | 273 | 1.7 | 4.3 | 0.00 | 0.00 | 0.00 | 47 | 1017.4 |
| 20260503205304 | 66 | 273 | 1.7 | 4.3 | 0.00 | 0.00 | 0.00 | 47 | 1017.4 |
| 20260503205203 | 66 | 274 | 1.7 | 4.3 | 0.00 | 0.00 | 0.00 | 47 | 1017.3 |
| 20260503205103 | 66 | 274 | 1.7 | 4.3 | 0.00 | 0.00 | 0.00 | 47 | 1017.4 |
| 20260503205003 | 66 | 276 | 1.7 | 4.3 | 0.00 | 0.00 | 0.00 | 47 | 1017.4 |
| 20260503204903 | 66 | 276 | 1.7 | 3.5 | 0.00 | 0.00 | 0.00 | 47 | 1017.3 |
| 20260503204803 | 66 | 276 | 1.7 | 3.5 | 0.00 | 0.00 | 0.00 | 47 | 1017.3 |
| 20260503204703 | 66 | 276 | 1.7 | 3.5 | 0.00 | 0.00 | 0.00 | 47 | 1017.4 |
| 20260503204603 | 66 | 277 | 1.7 | 3.5 | 0.00 | 0.00 | 0.00 | 47 | 1017.4 |
| 20260503204503 | 66 | 278 | 1.7 | 3.5 | 0.00 | 0.00 | 0.00 | 47 | 1017.4 |
| 20260503204403 | 66 | 279 | 1.7 | 4.3 | 0.00 | 0.00 | 0.00 | 47 | 1017.4 |
| 20260503204303 | 66 | 278 | 1.7 | 4.3 | 0.00 | 0.00 | 0.00 | 47 | 1017.4 |
| 20260503204203 | 66 | 279 | 1.7 | 4.3 | 0.00 | 0.00 | 0.00 | 47 | 1017.4 |
| 20260503204103 | 66 | 277 | 1.7 | 4.3 | 0.00 | 0.00 | 0.00 | 47 | 1017.3 |
| 20260503204003 | 66 | 278 | 1.7 | 5.2 | 0.00 | 0.00 | 0.00 | 47 | 1017.3 |
| 20260503203903 | 66 | 278 | 1.7 | 5.2 | 0.00 | 0.00 | 0.00 | 47 | 1017.3 |
| 20260503203803 | 66 | 278 | 2.6 | 5.2 | 0.00 | 0.00 | 0.00 | 47 | 1017.3 |
| 20260503203703 | 66 | 276 | 2.6 | 5.2 | 0.00 | 0.00 | 0.00 | 47 | 1017.3 |
| 20260503203603 | 66 | 276 | 2.6 | 5.2 | 0.00 | 0.00 | 0.00 | 47 | 1017.3 |
| 20260503203503 | 66 | 273 | 1.7 | 5.2 | 0.00 | 0.00 | 0.00 | 47 | 1017.3 |
| 20260503203403 | 66 | 273 | 1.7 | 5.2 | 0.00 | 0.00 | 0.00 | 47 | 1017.3 |
| 20260503203303 | 66 | 272 | 2.6 | 5.2 | 0.00 | 0.00 | 0.00 | 47 | 1017.4 |
| 20260503203203 | 66 | 271 | 2.6 | 5.2 | 0.00 | 0.00 | 0.00 | 47 | 1017.4 |
| 20260503203103 | 66 | 270 | 2.6 | 5.2 | 0.00 | 0.00 | 0.00 | 47 | 1017.3 |
| 20260503203003 | 66 | 268 | 2.6 | 5.2 | 0.00 | 0.00 | 0.00 | 47 | 1017.3 |
| 20260503202903 | 66 | 267 | 2.6 | 5.2 | 0.00 | 0.00 | 0.00 | 47 | 1017.4 |
| 20260503202803 | 66 | 267 | 1.7 | 5.2 | 0.00 | 0.00 | 0.00 | 47 | 1017.3 |
| 20260503202703 | 66 | 270 | 1.7 | 5.2 | 0.00 | 0.00 | 0.00 | 47 | 1017.3 |
| 20260503202603 | 66 | 269 | 1.7 | 5.2 | 0.00 | 0.00 | 0.00 | 46 | 1017.3 |
| 20260503202503 | 66 | 271 | 1.7 | 5.2 | 0.00 | 0.00 | 0.00 | 46 | 1017.4 |
| 20260503202403 | 66 | 271 | 1.7 | 5.2 | 0.00 | 0.00 | 0.00 | 46 | 1017.4 |
| 20260503202304 | 66 | 272 | 1.7 | 3.5 | 0.00 | 0.00 | 0.00 | 47 | 1017.4 |
| 20260503202203 | 66 | 274 | 1.7 | 3.5 | 0.00 | 0.00 | 0.00 | 47 | 1017.4 |
| 20260503202103 | 66 | 275 | 1.7 | 3.5 | 0.00 | 0.00 | 0.00 | 46 | 1017.4 |
| 20260503202003 | 66 | 277 | 1.7 | 3.5 | 0.00 | 0.00 | 0.00 | 46 | 1017.3 |
| 20260503201903 | 66 | 277 | 1.7 | 3.5 | 0.00 | 0.00 | 0.00 | 46 | 1017.3 |
| 20260503201803 | 66 | 277 | 1.7 | 3.5 | 0.00 | 0.00 | 0.00 | 46 | 1017.3 |
| 20260503201703 | 66 | 275 | 1.7 | 3.5 | 0.00 | 0.00 | 0.00 | 46 | 1017.3 |
| 20260503201603 | 66 | 273 | 1.7 | 3.5 | 0.00 | 0.00 | 0.00 | 46 | 1017.3 |
| 20260503201503 | 66 | 271 | 1.7 | 3.5 | 0.00 | 0.00 | 0.00 | 46 | 1017.1 |
| 20260503201403 | 66 | 272 | 1.7 | 3.5 | 0.00 | 0.00 | 0.00 | 46 | 1017.1 |
| 20260503201303 | 66 | 272 | 1.7 | 3.5 | 0.00 | 0.00 | 0.00 | 46 | 1017.2 |
| 20260503201203 | 66 | 271 | 1.7 | 3.5 | 0.00 | 0.00 | 0.00 | 46 | 1017.2 |
| 20260503201103 | 66 | 271 | 1.7 | 3.5 | 0.00 | 0.00 | 0.00 | 46 | 1017.2 |
| 20260503201003 | 66 | 271 | 1.7 | 3.5 | 0.00 | 0.00 | 0.00 | 46 | 1017.2 |
| 20260503200903 | 66 | 274 | 1.7 | 3.5 | 0.00 | 0.00 | 0.00 | 46 | 1017.2 |
| 20260503200803 | 66 | 273 | 1.7 | 3.5 | 0.00 | 0.00 | 0.00 | 46 | 1017.2 |
| 20260503200703 | 66 | 273 | 1.7 | 3.5 | 0.00 | 0.00 | 0.00 | 46 | 1017.2 |
| 20260503200603 | 66 | 274 | 1.7 | 3.5 | 0.00 | 0.00 | 0.00 | 45 | 1017.2 |
| 20260503200503 | 66 | 274 | 0.9 | 3.5 | 0.00 | 0.00 | 0.00 | 45 | 1017.1 |
| 20260503200403 | 66 | 272 | 1.7 | 3.5 | 0.00 | 0.00 | 0.00 | 45 | 1017.1 |
| 20260503200303 | 66 | 271 | 1.7 | 3.5 | 0.00 | 0.00 | 0.00 | 45 | 1017.1 |
| 20260503200203 | 66 | 269 | 1.7 | 3.5 | 0.00 | 0.00 | 0.00 | 45 | 1017.2 |
| 20260503200004 | 66 | 265 | 1.7 | 3.5 | 0.00 | 0.00 | 0.00 | 45 | 1017.2 |
| 20260503195903 | 66 | 259 | 1.7 | 2.6 | 0.00 | 0.00 | 0.00 | 44 | 1017.2 |
| 20260503195803 | 66 | 257 | 1.7 | 2.6 | 0.00 | 0.00 | 0.00 | 44 | 1017.3 |
| 20260503195703 | 66 | 256 | 1.7 | 3.5 | 0.00 | 0.00 | 0.00 | 44 | 1017.2 |
| 20260503195603 | 66 | 257 | 1.7 | 3.5 | 0.00 | 0.00 | 0.00 | 44 | 1017.2 |
| 20260503195503 | 66 | 256 | 1.7 | 3.5 | 0.00 | 0.00 | 0.00 | 44 | 1017.1 |
| 20260503195403 | 66 | 254 | 1.7 | 3.5 | 0.00 | 0.00 | 0.00 | 44 | 1017.1 |
| 20260503195304 | 66 | 252 | 1.7 | 3.5 | 0.00 | 0.00 | 0.00 | 44 | 1017.1 |
| 20260503195203 | 67 | 252 | 1.7 | 3.5 | 0.00 | 0.00 | 0.00 | 44 | 1017.1 |
| 20260503195103 | 67 | 251 | 1.7 | 3.5 | 0.00 | 0.00 | 0.00 | 44 | 1017.1 |
| 20260503195003 | 67 | 250 | 1.7 | 3.5 | 0.00 | 0.00 | 0.00 | 44 | 1017.1 |
| 20260503194903 | 67 | 250 | 1.7 | 3.5 | 0.00 | 0.00 | 0.00 | 44 | 1017.1 |
| 20260503194803 | 67 | 251 | 1.7 | 3.5 | 0.00 | 0.00 | 0.00 | 43 | 1017.1 |
| 20260503194703 | 67 | 250 | 1.7 | 3.5 | 0.00 | 0.00 | 0.00 | 43 | 1017.0 |
| 20260503194603 | 67 | 250 | 1.7 | 3.5 | 0.00 | 0.00 | 0.00 | 43 | 1017.0 |
| 20260503194503 | 67 | 248 | 1.7 | 3.5 | 0.00 | 0.00 | 0.00 | 43 | 1017.1 |
| 20260503194403 | 67 | 246 | 1.7 | 3.5 | 0.00 | 0.00 | 0.00 | 43 | 1017.1 |
| 20260503194303 | 67 | 246 | 1.7 | 3.5 | 0.00 | 0.00 | 0.00 | 43 | 1017.1 |
| 20260503194203 | 67 | 242 | 1.7 | 3.5 | 0.00 | 0.00 | 0.00 | 43 | 1017.1 |
| 20260503194103 | 67 | 238 | 1.7 | 3.5 | 0.00 | 0.00 | 0.00 | 43 | 1017.1 |
| 20260503194003 | 67 | 237 | 1.7 | 3.5 | 0.00 | 0.00 | 0.00 | 43 | 1017.0 |
| 20260503193903 | 67 | 235 | 1.7 | 3.5 | 0.00 | 0.00 | 0.00 | 42 | 1017.0 |
| 20260503193803 | 67 | 233 | 1.7 | 3.5 | 0.00 | 0.00 | 0.00 | 42 | 1017.0 |
| 20260503193703 | 67 | 229 | 1.7 | 3.5 | 0.00 | 0.00 | 0.00 | 42 | 1017.0 |
| 20260503193603 | 67 | 226 | 1.7 | 3.5 | 0.00 | 0.00 | 0.00 | 42 | 1017.0 |
| 20260503193503 | 67 | 226 | 1.7 | 3.5 | 0.00 | 0.00 | 0.00 | 42 | 1017.0 |
| 20260503193403 | 67 | 225 | 1.7 | 3.5 | 0.00 | 0.00 | 0.00 | 42 | 1017.1 |
| 20260503193303 | 68 | 222 | 1.7 | 3.5 | 0.00 | 0.00 | 0.00 | 42 | 1017.1 |
| 20260503193203 | 68 | 221 | 1.7 | 3.5 | 0.00 | 0.00 | 0.00 | 42 | 1017.0 |
| 20260503193103 | 68 | 222 | 1.7 | 2.6 | 0.00 | 0.00 | 0.00 | 42 | 1017.0 |
| 20260503193003 | 68 | 221 | 1.7 | 2.6 | 0.00 | 0.00 | 0.00 | 42 | 1017.0 |
| 20260503192903 | 68 | 221 | 1.7 | 2.6 | 0.00 | 0.00 | 0.00 | 42 | 1016.9 |
| 20260503192803 | 68 | 220 | 1.7 | 2.6 | 0.00 | 0.00 | 0.00 | 42 | 1016.9 |
| 20260503192703 | 68 | 221 | 1.7 | 2.6 | 0.00 | 0.00 | 0.00 | 42 | 1017.0 |
| 20260503192604 | 68 | 220 | 1.7 | 2.6 | 0.00 | 0.00 | 0.00 | 42 | 1016.9 |
| 20260503192503 | 68 | 219 | 1.7 | 2.6 | 0.00 | 0.00 | 0.00 | 41 | 1016.9 |
| 20260503192403 | 68 | 218 | 1.7 | 2.6 | 0.00 | 0.00 | 0.00 | 41 | 1016.9 |
| 20260503192305 | 68 | 218 | 1.7 | 2.6 | 0.00 | 0.00 | 0.00 | 41 | 1016.9 |
| 20260503192203 | 68 | 218 | 1.7 | 2.6 | 0.00 | 0.00 | 0.00 | 41 | 1016.9 |
| 20260503192103 | 68 | 218 | 1.7 | 2.6 | 0.00 | 0.00 | 0.00 | 41 | 1016.8 |
| 20260503192003 | 68 | 219 | 0.9 | 2.6 | 0.00 | 0.00 | 0.00 | 41 | 1016.8 |
| 20260503191903 | 68 | 220 | 0.9 | 2.6 | 0.00 | 0.00 | 0.00 | 41 | 1016.8 |
| 20260503191803 | 68 | 222 | 0.9 | 2.6 | 0.00 | 0.00 | 0.00 | 41 | 1016.8 |
| 20260503191703 | 68 | 223 | 0.9 | 2.6 | 0.00 | 0.00 | 0.00 | 41 | 1016.8 |
| 20260503191603 | 68 | 224 | 0.9 | 2.6 | 0.00 | 0.00 | 0.00 | 41 | 1016.8 |
| 20260503191503 | 68 | 226 | 0.9 | 2.6 | 0.00 | 0.00 | 0.00 | 41 | 1016.8 |
| 20260503191403 | 68 | 232 | 0.9 | 2.6 | 0.00 | 0.00 | 0.00 | 41 | 1016.8 |
| 20260503191303 | 68 | 234 | 0.9 | 2.6 | 0.00 | 0.00 | 0.00 | 41 | 1016.8 |
| 20260503191203 | 68 | 234 | 0.9 | 2.6 | 0.00 | 0.00 | 0.00 | 41 | 1016.8 |
| 20260503191103 | 68 | 233 | 0.9 | 2.6 | 0.00 | 0.00 | 0.00 | 41 | 1016.6 |
| 20260503191003 | 68 | 232 | 0.9 | 2.6 | 0.00 | 0.00 | 0.00 | 41 | 1016.6 |
| 20260503190903 | 68 | 232 | 0.9 | 2.6 | 0.00 | 0.00 | 0.00 | 41 | 1016.6 |
| 20260503190803 | 68 | 230 | 0.9 | 2.6 | 0.00 | 0.00 | 0.00 | 41 | 1016.6 |
| 20260503190703 | 68 | 227 | 0.9 | 2.6 | 0.00 | 0.00 | 0.00 | 41 | 1016.6 |
| 20260503190603 | 68 | 226 | 0.9 | 2.6 | 0.00 | 0.00 | 0.00 | 41 | 1016.6 |
| 20260503190503 | 68 | 226 | 0.9 | 2.6 | 0.00 | 0.00 | 0.00 | 41 | 1016.6 |
| 20260503190403 | 68 | 220 | 0.9 | 2.6 | 0.00 | 0.00 | 0.00 | 41 | 1016.6 |
| 20260503190303 | 68 | 221 | 0.9 | 3.5 | 0.00 | 0.00 | 0.00 | 41 | 1016.6 |
| 20260503190203 | 68 | 222 | 0.9 | 3.5 | 0.00 | 0.00 | 0.00 | 41 | 1016.6 |
| 20260503190004 | 69 | 228 | 1.7 | 3.5 | 0.00 | 0.00 | 0.00 | 41 | 1016.6 |
| 20260503185903 | 69 | 229 | 1.7 | 3.5 | 0.00 | 0.00 | 0.00 | 41 | 1016.6 |
| 20260503185803 | 69 | 231 | 1.7 | 3.5 | 0.00 | 0.00 | 0.00 | 41 | 1016.6 |
| 20260503185703 | 69 | 235 | 1.7 | 3.5 | 0.00 | 0.00 | 0.00 | 41 | 1016.6 |
| 20260503185603 | 69 | 238 | 1.7 | 3.5 | 0.00 | 0.00 | 0.00 | 41 | 1016.5 |
| 20260503185503 | 69 | 241 | 1.7 | 3.5 | 0.00 | 0.00 | 0.00 | 41 | 1016.5 |
| 20260503185403 | 69 | 241 | 1.7 | 3.5 | 0.00 | 0.00 | 0.00 | 41 | 1016.5 |
| 20260503185304 | 69 | 245 | 1.7 | 3.5 | 0.00 | 0.00 | 0.00 | 41 | 1016.5 |
| 20260503185203 | 69 | 246 | 1.7 | 3.5 | 0.00 | 0.00 | 0.00 | 41 | 1016.5 |
| 20260503185103 | 69 | 248 | 1.7 | 3.5 | 0.00 | 0.00 | 0.00 | 41 | 1016.5 |
| 20260503185003 | 69 | 248 | 1.7 | 3.5 | 0.00 | 0.00 | 0.00 | 41 | 1016.5 |
| 20260503184903 | 69 | 247 | 1.7 | 3.5 | 0.00 | 0.00 | 0.00 | 41 | 1016.5 |
| 20260503184803 | 69 | 248 | 1.7 | 3.5 | 0.00 | 0.00 | 0.00 | 41 | 1016.5 |
| 20260503184703 | 69 | 247 | 1.7 | 3.5 | 0.00 | 0.00 | 0.00 | 41 | 1016.5 |
| 20260503184604 | 69 | 246 | 1.7 | 3.5 | 0.00 | 0.00 | 0.00 | 41 | 1016.5 |
| 20260503184503 | 69 | 246 | 2.6 | 3.5 | 0.00 | 0.00 | 0.00 | 41 | 1016.5 |
| 20260503184403 | 69 | 244 | 2.6 | 3.5 | 0.00 | 0.00 | 0.00 | 41 | 1016.5 |
| 20260503184303 | 69 | 243 | 1.7 | 3.5 | 0.00 | 0.00 | 0.00 | 41 | 1016.5 |
| 20260503184203 | 69 | 245 | 2.6 | 4.3 | 0.00 | 0.00 | 0.00 | 41 | 1016.5 |
| 20260503184103 | 69 | 246 | 1.7 | 4.3 | 0.00 | 0.00 | 0.00 | 42 | 1016.5 |
| 20260503184003 | 69 | 245 | 1.7 | 4.3 | 0.00 | 0.00 | 0.00 | 42 | 1016.4 |
| 20260503183903 | 69 | 247 | 2.6 | 4.3 | 0.00 | 0.00 | 0.00 | 42 | 1016.4 |
| 20260503183803 | 69 | 248 | 2.6 | 4.3 | 0.00 | 0.00 | 0.00 | 42 | 1016.5 |
| 20260503183703 | 69 | 250 | 2.6 | 6.1 | 0.00 | 0.00 | 0.00 | 42 | 1016.4 |
| 20260503183603 | 69 | 254 | 2.6 | 6.1 | 0.00 | 0.00 | 0.00 | 42 | 1016.4 |
| 20260503183503 | 69 | 254 | 2.6 | 6.1 | 0.00 | 0.00 | 0.00 | 42 | 1016.4 |
| 20260503183403 | 69 | 257 | 2.6 | 6.1 | 0.00 | 0.00 | 0.00 | 42 | 1016.4 |
| 20260503183303 | 70 | 257 | 2.6 | 6.1 | 0.00 | 0.00 | 0.00 | 42 | 1016.5 |
| 20260503183203 | 70 | 256 | 2.6 | 6.1 | 0.00 | 0.00 | 0.00 | 42 | 1016.3 |
| 20260503183103 | 70 | 251 | 2.6 | 6.1 | 0.00 | 0.00 | 0.00 | 42 | 1016.3 |
| 20260503183003 | 70 | 251 | 2.6 | 6.1 | 0.00 | 0.00 | 0.00 | 42 | 1016.5 |
| 20260503182903 | 70 | 251 | 2.6 | 6.1 | 0.00 | 0.00 | 0.00 | 42 | 1016.3 |
| 20260503182803 | 70 | 250 | 2.6 | 6.1 | 0.00 | 0.00 | 0.00 | 42 | 1016.3 |
| 20260503182703 | 70 | 248 | 2.6 | 5.2 | 0.00 | 0.00 | 0.00 | 42 | 1016.4 |
| 20260503182603 | 70 | 246 | 2.6 | 5.2 | 0.00 | 0.00 | 0.00 | 42 | 1016.4 |
| 20260503182503 | 70 | 246 | 2.6 | 5.2 | 0.00 | 0.00 | 0.00 | 42 | 1016.4 |
| 20260503182403 | 70 | 244 | 2.6 | 5.2 | 0.00 | 0.00 | 0.00 | 42 | 1016.4 |
| 20260503182305 | 70 | 245 | 2.6 | 5.2 | 0.00 | 0.00 | 0.00 | 42 | 1016.4 |
| 20260503182203 | 70 | 246 | 2.6 | 6.1 | 0.00 | 0.00 | 0.00 | 42 | 1016.4 |
| 20260503182103 | 70 | 247 | 2.6 | 7.0 | 0.00 | 0.00 | 0.00 | 42 | 1016.4 |
| 20260503182003 | 70 | 246 | 2.6 | 7.0 | 0.00 | 0.00 | 0.00 | 42 | 1016.4 |
| 20260503181903 | 70 | 246 | 2.6 | 7.0 | 0.00 | 0.00 | 0.00 | 42 | 1016.3 |
| 20260503181803 | 70 | 244 | 2.6 | 7.8 | 0.00 | 0.00 | 0.00 | 42 | 1016.3 |
| 20260503181703 | 70 | 245 | 3.5 | 7.8 | 0.00 | 0.00 | 0.00 | 42 | 1016.4 |
| 20260503181603 | 70 | 245 | 3.5 | 7.8 | 0.00 | 0.00 | 0.00 | 41 | 1016.4 |
| 20260503181504 | 70 | 242 | 3.5 | 7.8 | 0.00 | 0.00 | 0.00 | 41 | 1016.4 |
| 20260503181403 | 70 | 244 | 3.5 | 7.8 | 0.00 | 0.00 | 0.00 | 41 | 1016.5 |
| 20260503181303 | 70 | 245 | 4.3 | 8.7 | 0.00 | 0.00 | 0.00 | 41 | 1016.5 |
| 20260503181203 | 70 | 245 | 4.3 | 9.6 | 0.00 | 0.00 | 0.00 | 41 | 1016.5 |
| 20260503181103 | 70 | 246 | 4.3 | 9.6 | 0.00 | 0.00 | 0.00 | 41 | 1016.4 |
| 20260503181004 | 71 | 247 | 4.3 | 9.6 | 0.00 | 0.00 | 0.00 | 41 | 1016.4 |
| 20260503180903 | 71 | 247 | 4.3 | 9.6 | 0.00 | 0.00 | 0.00 | 41 | 1016.5 |
| 20260503180803 | 71 | 247 | 4.3 | 9.6 | 0.00 | 0.00 | 0.00 | 41 | 1016.5 |
| 20260503180703 | 71 | 247 | 4.3 | 9.6 | 0.00 | 0.00 | 0.00 | 40 | 1016.5 |
| 20260503180603 | 71 | 246 | 4.3 | 9.6 | 0.00 | 0.00 | 0.00 | 40 | 1016.5 |
| 20260503180503 | 71 | 248 | 4.3 | 9.6 | 0.00 | 0.00 | 0.00 | 40 | 1016.5 |
| 20260503180403 | 71 | 247 | 4.3 | 9.6 | 0.00 | 0.00 | 0.00 | 40 | 1016.5 |
| 20260503180303 | 71 | 246 | 4.3 | 9.6 | 0.00 | 0.00 | 0.00 | 41 | 1016.5 |
| 20260503180203 | 71 | 247 | 4.3 | 7.8 | 0.00 | 0.00 | 0.00 | 41 | 1016.6 |
| 20260503180103 | 71 | 247 | 3.5 | 7.8 | 0.00 | 0.00 | 0.00 | 41 | 1016.5 |
| 20260503180004 | 71 | 247 | 3.5 | 7.8 | 0.00 | 0.00 | 0.00 | 41 | 1016.5 |
| 20260503175903 | 71 | 246 | 4.3 | 7.8 | 0.00 | 0.00 | 0.00 | 41 | 1016.5 |
| 20260503175803 | 72 | 247 | 3.5 | 7.8 | 0.00 | 0.00 | 0.00 | 41 | 1016.5 |
| 20260503175703 | 72 | 244 | 3.5 | 7.8 | 0.00 | 0.00 | 0.00 | 41 | 1016.5 |
| 20260503175603 | 72 | 244 | 3.5 | 7.8 | 0.00 | 0.00 | 0.00 | 41 | 1016.5 |
| 20260503175503 | 72 | 243 | 3.5 | 7.8 | 0.00 | 0.00 | 0.00 | 40 | 1016.5 |
| 20260503175403 | 72 | 243 | 3.5 | 7.8 | 0.00 | 0.00 | 0.00 | 40 | 1016.5 |
| 20260503175304 | 72 | 240 | 3.5 | 7.8 | 0.00 | 0.00 | 0.00 | 41 | 1016.5 |
| 20260503175203 | 72 | 240 | 3.5 | 7.8 | 0.00 | 0.00 | 0.00 | 40 | 1016.5 |
| 20260503175103 | 72 | 238 | 3.5 | 7.8 | 0.00 | 0.00 | 0.00 | 40 | 1016.5 |
| 20260503175003 | 72 | 236 | 3.5 | 7.8 | 0.00 | 0.00 | 0.00 | 40 | 1016.5 |
| 20260503174903 | 72 | 235 | 3.5 | 7.8 | 0.00 | 0.00 | 0.00 | 40 | 1016.4 |
| 20260503174803 | 72 | 234 | 3.5 | 7.8 | 0.00 | 0.00 | 0.00 | 40 | 1016.5 |
| 20260503174703 | 72 | 235 | 3.5 | 6.1 | 0.00 | 0.00 | 0.00 | 40 | 1016.5 |
| 20260503174603 | 72 | 233 | 3.5 | 6.1 | 0.00 | 0.00 | 0.00 | 40 | 1016.4 |
| 20260503174503 | 72 | 233 | 3.5 | 6.1 | 0.00 | 0.00 | 0.00 | 40 | 1016.4 |
| 20260503174403 | 72 | 230 | 3.5 | 5.2 | 0.00 | 0.00 | 0.00 | 40 | 1016.3 |
| 20260503174303 | 72 | 228 | 3.5 | 5.2 | 0.00 | 0.00 | 0.00 | 40 | 1016.4 |
| 20260503174203 | 72 | 225 | 3.5 | 5.2 | 0.00 | 0.00 | 0.00 | 40 | 1016.4 |
| 20260503174103 | 72 | 223 | 3.5 | 5.2 | 0.00 | 0.00 | 0.00 | 39 | 1016.3 |
| 20260503174003 | 72 | 221 | 3.5 | 6.1 | 0.00 | 0.00 | 0.00 | 39 | 1016.3 |
| 20260503173903 | 72 | 221 | 3.5 | 7.0 | 0.00 | 0.00 | 0.00 | 39 | 1016.3 |
| 20260503173803 | 72 | 219 | 3.5 | 7.0 | 0.00 | 0.00 | 0.00 | 39 | 1016.4 |
| 20260503173703 | 72 | 218 | 3.5 | 7.0 | 0.00 | 0.00 | 0.00 | 39 | 1016.4 |
| 20260503173603 | 73 | 220 | 3.5 | 7.8 | 0.00 | 0.00 | 0.00 | 39 | 1016.3 |
| 20260503173503 | 73 | 219 | 3.5 | 7.8 | 0.00 | 0.00 | 0.00 | 39 | 1016.3 |
| 20260503173403 | 73 | 219 | 3.5 | 7.8 | 0.00 | 0.00 | 0.00 | 38 | 1016.3 |
| 20260503173303 | 73 | 219 | 3.5 | 7.8 | 0.00 | 0.00 | 0.00 | 39 | 1016.4 |
| 20260503173203 | 73 | 221 | 4.3 | 7.8 | 0.00 | 0.00 | 0.00 | 39 | 1016.4 |
| 20260503173103 | 73 | 222 | 4.3 | 7.8 | 0.00 | 0.00 | 0.00 | 38 | 1016.3 |
| 20260503173003 | 73 | 225 | 3.5 | 7.8 | 0.00 | 0.00 | 0.00 | 38 | 1016.3 |
| 20260503172903 | 73 | 226 | 3.5 | 7.8 | 0.00 | 0.00 | 0.00 | 38 | 1016.3 |
| 20260503172803 | 73 | 227 | 3.5 | 7.8 | 0.00 | 0.00 | 0.00 | 38 | 1016.2 |
| 20260503172703 | 73 | 228 | 3.5 | 7.8 | 0.00 | 0.00 | 0.00 | 38 | 1016.2 |
| 20260503172603 | 73 | 226 | 3.5 | 7.8 | 0.00 | 0.00 | 0.00 | 38 | 1016.2 |
| 20260503172504 | 73 | 227 | 3.5 | 7.8 | 0.00 | 0.00 | 0.00 | 37 | 1016.2 |
| 20260503172403 | 73 | 229 | 3.5 | 7.8 | 0.00 | 0.00 | 0.00 | 37 | 1016.2 |
| 20260503172305 | 73 | 230 | 3.5 | 7.8 | 0.00 | 0.00 | 0.00 | 37 | 1016.3 |
| 20260503172203 | 73 | 227 | 2.6 | 7.8 | 0.00 | 0.00 | 0.00 | 37 | 1016.2 |
| 20260503172103 | 73 | 224 | 2.6 | 7.8 | 0.00 | 0.00 | 0.00 | 37 | 1016.2 |
| 20260503172003 | 73 | 221 | 2.6 | 5.2 | 0.00 | 0.00 | 0.00 | 37 | 1016.2 |
| 20260503171903 | 73 | 219 | 2.6 | 4.3 | 0.00 | 0.00 | 0.00 | 37 | 1016.2 |
| 20260503171804 | 73 | 218 | 2.6 | 4.3 | 0.00 | 0.00 | 0.00 | 37 | 1016.2 |
| 20260503171703 | 73 | 215 | 2.6 | 6.1 | 0.00 | 0.00 | 0.00 | 37 | 1016.2 |
| 20260503171603 | 73 | 213 | 2.6 | 6.1 | 0.00 | 0.00 | 0.00 | 37 | 1016.2 |
| 20260503171503 | 73 | 211 | 2.6 | 6.1 | 0.00 | 0.00 | 0.00 | 37 | 1016.2 |
| 20260503171403 | 73 | 211 | 2.6 | 6.1 | 0.00 | 0.00 | 0.00 | 37 | 1016.2 |
| 20260503171303 | 73 | 210 | 2.6 | 6.1 | 0.00 | 0.00 | 0.00 | 36 | 1016.2 |
| 20260503171203 | 73 | 211 | 3.5 | 6.1 | 0.00 | 0.00 | 0.00 | 36 | 1016.1 |
| 20260503171103 | 73 | 212 | 3.5 | 6.1 | 0.00 | 0.00 | 0.00 | 36 | 1016.1 |
| 20260503171003 | 73 | 210 | 3.5 | 6.1 | 0.00 | 0.00 | 0.00 | 36 | 1016.2 |
| 20260503170903 | 73 | 210 | 3.5 | 6.1 | 0.00 | 0.00 | 0.00 | 36 | 1016.2 |
| 20260503170803 | 73 | 211 | 3.5 | 6.1 | 0.00 | 0.00 | 0.00 | 36 | 1016.2 |
| 20260503170703 | 73 | 212 | 3.5 | 7.0 | 0.00 | 0.00 | 0.00 | 36 | 1016.2 |
| 20260503170603 | 73 | 213 | 3.5 | 7.0 | 0.00 | 0.00 | 0.00 | 36 | 1016.2 |
| 20260503170503 | 73 | 213 | 3.5 | 7.0 | 0.00 | 0.00 | 0.00 | 36 | 1016.2 |
| 20260503170403 | 73 | 213 | 3.5 | 7.0 | 0.00 | 0.00 | 0.00 | 36 | 1016.2 |
| 20260503170303 | 74 | 214 | 3.5 | 7.0 | 0.00 | 0.00 | 0.00 | 36 | 1016.2 |
| 20260503170203 | 74 | 214 | 3.5 | 7.0 | 0.00 | 0.00 | 0.00 | 36 | 1016.2 |
| 20260503170103 | 74 | 214 | 3.5 | 7.0 | 0.00 | 0.00 | 0.00 | 35 | 1016.2 |
| 20260503160203 | 75 | 235 | 2.6 | 6.1 | 0.00 | 0.00 | 0.00 | 32 | 1016.4 |
| 20260503151003 | 76 | 224 | 4.3 | 9.6 | 0.00 | 0.00 | 0.00 | 33 | 1016.9 |
| 20260503150903 | 76 | 223 | 4.3 | 9.6 | 0.00 | 0.00 | 0.00 | 33 | 1017.0 |
| 20260503150803 | 76 | 219 | 4.3 | 9.6 | 0.00 | 0.00 | 0.00 | 34 | 1017.0 |
| 20260503150703 | 76 | 215 | 4.3 | 9.6 | 0.00 | 0.00 | 0.00 | 34 | 1017.0 |
| 20260503150603 | 76 | 210 | 4.3 | 9.6 | 0.00 | 0.00 | 0.00 | 34 | 1017.0 |
| 20260503150503 | 76 | 209 | 4.3 | 7.8 | 0.00 | 0.00 | 0.00 | 34 | 1017.0 |
| 20260503150403 | 76 | 208 | 4.3 | 7.8 | 0.00 | 0.00 | 0.00 | 34 | 1017.0 |
| 20260503150303 | 76 | 208 | 4.3 | 7.8 | 0.00 | 0.00 | 0.00 | 34 | 1016.9 |
| 20260503150203 | 76 | 205 | 3.5 | 7.8 | 0.00 | 0.00 | 0.00 | 35 | 1016.9 |
| 20260503150103 | 76 | 201 | 3.5 | 7.8 | 0.00 | 0.00 | 0.00 | 35 | 1017.0 |
| 20260503140303 | 76 | 215 | 3.5 | 7.0 | 0.00 | 0.00 | 0.00 | 35 | 1017.5 |
| 20260503140204 | 76 | 216 | 3.5 | 7.0 | 0.00 | 0.00 | 0.00 | 35 | 1017.5 |
| 20260503140103 | 76 | 217 | 3.5 | 7.0 | 0.00 | 0.00 | 0.00 | 36 | 1017.5 |
| 20260503131403 | 76 | 217 | 5.2 | 13.0 | 0.00 | 0.00 | 0.00 | 35 | 1018.2 |
| 20260503131303 | 76 | 218 | 5.2 | 13.0 | 0.00 | 0.00 | 0.00 | 35 | 1018.2 |
| 20260503131203 | 76 | 221 | 6.1 | 13.0 | 0.00 | 0.00 | 0.00 | 35 | 1018.2 |
| 20260503131103 | 77 | 221 | 6.1 | 13.0 | 0.00 | 0.00 | 0.00 | 35 | 1018.2 |
| 20260503131003 | 77 | 221 | 6.1 | 13.0 | 0.00 | 0.00 | 0.00 | 35 | 1018.2 |
| 20260503130903 | 77 | 220 | 6.1 | 13.0 | 0.00 | 0.00 | 0.00 | 35 | 1018.2 |
| 20260503130803 | 77 | 217 | 6.1 | 13.0 | 0.00 | 0.00 | 0.00 | 34 | 1018.2 |
| 20260503130703 | 77 | 223 | 6.1 | 11.3 | 0.00 | 0.00 | 0.00 | 34 | 1018.2 |
| 20260503130603 | 78 | 225 | 6.1 | 11.3 | 0.00 | 0.00 | 0.00 | 34 | 1018.2 |
| 20260503130503 | 78 | 226 | 6.1 | 11.3 | 0.00 | 0.00 | 0.00 | 34 | 1018.3 |
| 20260503130403 | 78 | 228 | 6.1 | 11.3 | 0.00 | 0.00 | 0.00 | 33 | 1018.3 |
| 20260503130303 | 78 | 231 | 5.2 | 11.3 | 0.00 | 0.00 | 0.00 | 33 | 1018.3 |
| 20260503130203 | 79 | 235 | 5.2 | 11.3 | 0.00 | 0.00 | 0.00 | 33 | 1018.3 |
| 20260503130103 | 79 | 239 | 5.2 | 10.4 | 0.00 | 0.00 | 0.00 | 33 | 1018.3 |
| 20260503120203 | 75 | 228 | 5.2 | 11.3 | 0.00 | 0.00 | 0.00 | 36 | 1018.6 |